Time,TemperatureF,DewpointF,PressureIn,WindDirection,WindDirectionDegrees,WindSpeedMPH,WindSpeedGustMPH,Humidity,HourlyPrecipIn,Conditions,Clouds,dailyrainin,SoftwareType,DateUTC
2013-04-16 00:00:00,73.2,28.5,25.84,South,191,6.3,6.3,19,0.00,,,0.00,VWS V14.00,2013-04-16 05:00:00,
2013-04-16 00:02:00,72.9,28.2,25.84,SSW,192,4.9,6.3,19,0.00,,,0.00,VWS V14.00,2013-04-16 05:02:00,
2013-04-16 00:03:00,72.9,28.2,25.84,SSW,203,4.9,6.3,19,0.00,,,0.00,VWS V14.00,2013-04-16 05:03:00,
2013-04-16 00:05:00,73.0,28.4,25.81,SSW,203,3.6,8.1,19,0.00,,,0.00,VWS V14.00,2013-04-16 05:05:00,
2013-04-16 00:06:00,73.2,28.5,25.81,South,187,8.3,8.3,19,0.00,,,0.00,VWS V14.00,2013-04-16 05:06:00,
2013-04-16 00:07:00,73.6,28.8,25.81,South,179,11.4,11.4,19,0.00,,,0.00,VWS V14.00,2013-04-16 05:07:00,
2013-04-16 00:09:00,73.2,28.5,25.81,South,173,6.3,11.4,19,0.00,,,0.00,VWS V14.00,2013-04-16 05:09:00,
2013-04-16 00:11:00,73.2,28.5,25.81,SSW,193,7.6,11.4,19,0.00,,,0.00,VWS V14.00,2013-04-16 05:11:00,
2013-04-16 00:12:00,73.2,28.5,25.81,SSW,198,5.4,11.4,19,0.00,,,0.00,VWS V14.00,2013-04-16 05:12:00,
2013-04-16 00:13:00,73.0,28.4,25.81,SSW,203,5.4,6.3,19,0.00,,,0.00,VWS V14.00,2013-04-16 05:13:00,
2013-04-16 00:15:00,73.2,28.5,25.81,SSW,198,5.4,6.7,19,0.00,,,0.00,VWS V14.00,2013-04-16 05:15:00,
2013-04-16 00:16:00,73.0,28.4,25.81,SW,234,3.1,6.7,19,0.00,,,0.00,VWS V14.00,2013-04-16 05:16:00,
2013-04-16 00:18:00,73.0,28.4,25.81,SSW,203,5.8,6.7,19,0.00,,,0.00,VWS V14.00,2013-04-16 05:18:00,
2013-04-16 00:19:00,72.9,28.2,25.81,South,173,3.1,7.2,19,0.00,,,0.00,VWS V14.00,2013-04-16 05:19:00,
2013-04-16 00:20:00,72.9,28.2,25.81,South,172,5.8,7.2,19,0.00,,,0.00,VWS V14.00,2013-04-16 05:20:00,
2013-04-16 00:22:00,73.4,28.7,25.81,SSW,208,5.4,10.1,19,0.00,,,0.00,VWS V14.00,2013-04-16 05:22:00,
2013-04-16 00:24:00,73.2,28.5,25.81,SW,214,3.6,10.1,19,0.00,,,0.00,VWS V14.00,2013-04-16 05:24:00,
2013-04-16 00:25:00,72.9,28.2,25.81,South,180,0.0,10.1,19,0.00,,,0.00,VWS V14.00,2013-04-16 05:25:00,
2013-04-16 00:26:00,73.2,28.5,25.81,South,185,0.0,10.1,19,0.00,,,0.00,VWS V14.00,2013-04-16 05:26:00,
2013-04-16 00:29:00,72.9,28.2,25.81,SSW,192,0.0,0.0,19,0.00,,,0.00,VWS V14.00,2013-04-16 05:29:00,
2013-04-16 00:31:00,72.9,28.2,25.81,SSW,204,0.0,0.0,19,0.00,,,0.00,VWS V14.00,2013-04-16 05:31:00,
2013-04-16 00:32:00,73.0,28.4,25.81,South,169,0.0,0.0,19,0.00,,,0.00,VWS V14.00,2013-04-16 05:32:00,
2013-04-16 00:34:00,72.9,28.2,25.81,SSW,200,0.0,0.0,19,0.00,,,0.00,VWS V14.00,2013-04-16 05:34:00,
2013-04-16 00:37:00,72.9,29.5,25.81,South,170,0.0,0.0,20,0.00,,,0.00,VWS V14.00,2013-04-16 05:37:00,
2013-04-16 00:38:00,72.7,29.3,25.81,SSW,210,0.0,0.0,20,0.00,,,0.00,VWS V14.00,2013-04-16 05:38:00,
2013-04-16 00:39:00,72.7,29.3,25.81,SSE,162,0.0,0.0,20,0.00,,,0.00,VWS V14.00,2013-04-16 05:39:00,
2013-04-16 00:40:00,72.9,29.5,25.81,SSW,196,0.0,0.0,20,0.00,,,0.00,VWS V14.00,2013-04-16 05:40:00,
2013-04-16 00:43:00,72.5,29.2,25.81,SSW,193,0.0,0.0,20,0.00,,,0.00,VWS V14.00,2013-04-16 05:43:00,
2013-04-16 00:44:00,72.5,29.2,25.81,South,185,0.0,0.0,20,0.00,,,0.00,VWS V14.00,2013-04-16 05:44:00,
2013-04-16 00:45:00,72.5,29.2,25.81,South,191,0.0,0.0,20,0.00,,,0.00,VWS V14.00,2013-04-16 05:45:00,
2013-04-16 00:46:00,72.7,29.3,25.81,South,187,0.0,0.0,20,0.00,,,0.00,VWS V14.00,2013-04-16 05:46:00,
2013-04-16 00:48:00,72.9,29.5,25.81,South,181,0.0,0.0,20,0.00,,,0.00,VWS V14.00,2013-04-16 05:48:00,
2013-04-16 00:49:00,72.7,29.3,25.78,SSW,199,0.0,0.0,20,0.00,,,0.00,VWS V14.00,2013-04-16 05:49:00,
2013-04-16 00:50:00,72.9,29.5,25.78,SSW,206,0.0,0.0,20,0.00,,,0.00,VWS V14.00,2013-04-16 05:50:00,
2013-04-16 00:51:00,72.9,29.5,25.78,SSW,200,0.0,0.0,20,0.00,,,0.00,VWS V14.00,2013-04-16 05:51:00,
2013-04-16 00:52:00,72.7,29.3,25.78,South,180,0.0,0.0,20,0.00,,,0.00,VWS V14.00,2013-04-16 05:52:00,
2013-04-16 00:54:00,72.7,29.3,25.78,SW,214,0.0,0.0,20,0.00,,,0.00,VWS V14.00,2013-04-16 05:54:00,
2013-04-16 00:55:00,72.7,29.3,25.78,South,185,0.0,0.0,20,0.00,,,0.00,VWS V14.00,2013-04-16 05:55:00,
2013-04-16 00:56:00,72.5,29.2,25.78,SSW,196,0.0,0.0,20,0.00,,,0.00,VWS V14.00,2013-04-16 05:56:00,
2013-04-16 00:57:00,72.3,29.0,25.78,South,177,0.0,0.0,20,0.00,,,0.00,VWS V14.00,2013-04-16 05:57:00,
2013-04-16 00:59:00,72.1,30.1,25.78,South,178,0.0,0.0,21,0.00,,,0.00,VWS V14.00,2013-04-16 05:59:00,
2013-04-16 01:01:00,72.1,31.2,25.78,South,184,0.0,0.0,22,0.00,,,0.00,VWS V14.00,2013-04-16 06:01:00,
2013-04-16 01:02:00,72.1,31.2,25.78,South,179,0.0,0.0,22,0.00,,,0.00,VWS V14.00,2013-04-16 06:02:00,
2013-04-16 01:03:00,72.1,31.2,25.78,SSW,193,0.0,0.0,22,0.00,,,0.00,VWS V14.00,2013-04-16 06:03:00,
2013-04-16 01:06:00,72.3,31.4,25.78,SSW,202,0.0,0.0,22,0.00,,,0.00,VWS V14.00,2013-04-16 06:06:00,
2013-04-16 01:07:00,72.1,30.1,25.78,SE,145,0.0,0.0,21,0.00,,,0.00,VWS V14.00,2013-04-16 06:07:00,
2013-04-16 01:08:00,72.1,31.2,25.78,SSE,168,0.0,0.0,22,0.00,,,0.00,VWS V14.00,2013-04-16 06:08:00,
2013-04-16 01:13:00,72.0,31.1,25.78,South,175,0.0,0.0,22,0.00,,,0.00,VWS V14.00,2013-04-16 06:13:00,
2013-04-16 01:14:00,71.8,30.9,25.78,SSE,155,0.0,0.0,22,0.00,,,0.00,VWS V14.00,2013-04-16 06:14:00,
2013-04-16 01:18:00,71.6,32.9,25.78,SSE,151,0.0,0.0,24,0.00,,,0.00,VWS V14.00,2013-04-16 06:18:00,
2013-04-16 01:19:00,71.6,32.9,25.78,SSW,193,0.0,0.0,24,0.00,,,0.00,VWS V14.00,2013-04-16 06:19:00,
2013-04-16 01:20:00,71.6,32.9,25.78,South,176,0.0,0.0,24,0.00,,,0.00,VWS V14.00,2013-04-16 06:20:00,
2013-04-16 01:23:00,71.4,33.8,25.78,SSE,166,0.0,0.0,25,0.00,,,0.00,VWS V14.00,2013-04-16 06:23:00,
2013-04-16 01:24:00,71.2,33.6,25.78,South,174,0.0,0.0,25,0.00,,,0.00,VWS V14.00,2013-04-16 06:24:00,
2013-04-16 01:25:00,71.1,33.5,25.78,SSE,162,0.0,0.0,25,0.00,,,0.00,VWS V14.00,2013-04-16 06:25:00,
2013-04-16 01:27:00,71.4,34.8,25.78,South,182,0.0,0.0,26,0.00,,,0.00,VWS V14.00,2013-04-16 06:27:00,
2013-04-16 01:28:00,71.2,34.6,25.78,South,181,0.0,0.0,26,0.00,,,0.00,VWS V14.00,2013-04-16 06:28:00,
2013-04-16 01:29:00,71.1,33.5,25.78,South,180,0.0,0.0,25,0.00,,,0.00,VWS V14.00,2013-04-16 06:29:00,
2013-04-16 01:30:00,71.1,34.5,25.78,SSE,167,0.0,0.0,26,0.00,,,0.00,VWS V14.00,2013-04-16 06:30:00,
2013-04-16 01:31:00,71.1,35.4,25.78,SSE,163,0.0,0.0,27,0.00,,,0.00,VWS V14.00,2013-04-16 06:31:00,
2013-04-16 01:32:00,70.9,35.3,25.78,South,176,0.0,0.0,27,0.00,,,0.00,VWS V14.00,2013-04-16 06:32:00,
2013-04-16 01:34:00,70.9,35.3,25.78,South,183,0.0,0.0,27,0.00,,,0.00,VWS V14.00,2013-04-16 06:34:00,
2013-04-16 01:36:00,70.9,36.2,25.78,SSW,197,0.0,0.0,28,0.00,,,0.00,VWS V14.00,2013-04-16 06:36:00,
2013-04-16 01:37:00,70.9,36.2,25.78,South,177,0.0,0.0,28,0.00,,,0.00,VWS V14.00,2013-04-16 06:37:00,
2013-04-16 01:39:00,70.7,36.0,25.78,South,173,0.0,0.0,28,0.00,,,0.00,VWS V14.00,2013-04-16 06:39:00,
2013-04-16 01:41:00,70.5,35.9,25.78,South,189,0.0,0.0,28,0.00,,,0.00,VWS V14.00,2013-04-16 06:41:00,
2013-04-16 01:44:00,70.3,35.7,25.78,South,183,0.0,0.0,28,0.00,,,0.00,VWS V14.00,2013-04-16 06:44:00,
2013-04-16 01:46:00,70.7,36.9,25.78,SSW,199,0.0,0.0,29,0.00,,,0.00,VWS V14.00,2013-04-16 06:46:00,
2013-04-16 01:47:00,70.7,36.9,25.78,South,176,0.0,0.0,29,0.00,,,0.00,VWS V14.00,2013-04-16 06:47:00,
2013-04-16 01:50:00,70.5,36.8,25.78,SSE,167,0.0,0.0,29,0.00,,,0.00,VWS V14.00,2013-04-16 06:50:00,
2013-04-16 01:52:00,70.7,36.9,25.78,SSW,197,0.0,0.0,29,0.00,,,0.00,VWS V14.00,2013-04-16 06:52:00,
2013-04-16 01:56:00,70.7,36.0,25.78,South,182,0.0,0.0,28,0.00,,,0.00,VWS V14.00,2013-04-16 06:56:00,
2013-04-16 01:57:00,70.7,36.0,25.78,South,186,0.0,0.0,28,0.00,,,0.00,VWS V14.00,2013-04-16 06:57:00,
2013-04-16 01:58:00,70.7,36.0,25.78,SSE,163,0.0,0.0,28,0.00,,,0.00,VWS V14.00,2013-04-16 06:58:00,
2013-04-16 02:01:00,70.9,36.2,25.78,SE,136,0.0,0.0,28,0.00,,,0.00,VWS V14.00,2013-04-16 07:01:00,
2013-04-16 02:02:00,70.9,36.2,25.78,SSE,167,0.0,0.0,28,0.00,,,0.00,VWS V14.00,2013-04-16 07:02:00,
2013-04-16 02:03:00,71.1,36.3,25.78,South,188,0.0,0.0,28,0.00,,,0.00,VWS V14.00,2013-04-16 07:03:00,
2013-04-16 02:07:00,71.1,35.4,25.75,SSW,197,0.0,0.0,27,0.00,,,0.00,VWS V14.00,2013-04-16 07:07:00,
2013-04-16 02:08:00,71.1,35.4,25.75,SSW,194,0.0,0.0,27,0.00,,,0.00,VWS V14.00,2013-04-16 07:08:00,
2013-04-16 02:11:00,71.1,35.4,25.75,South,172,0.0,0.0,27,0.00,,,0.00,VWS V14.00,2013-04-16 07:11:00,
2013-04-16 02:13:00,71.1,35.4,25.75,SSW,208,0.0,0.0,27,0.00,,,0.00,VWS V14.00,2013-04-16 07:13:00,
2013-04-16 02:14:00,71.2,35.6,25.75,South,186,0.0,0.0,27,0.00,,,0.00,VWS V14.00,2013-04-16 07:14:00,
2013-04-16 02:15:00,71.2,35.6,25.75,South,190,0.0,0.0,27,0.00,,,0.00,VWS V14.00,2013-04-16 07:15:00,
2013-04-16 02:16:00,71.2,35.6,25.75,SSW,193,0.0,0.0,27,0.00,,,0.00,VWS V14.00,2013-04-16 07:16:00,
2013-04-16 02:17:00,71.1,35.4,25.75,South,186,0.0,0.0,27,0.00,,,0.00,VWS V14.00,2013-04-16 07:17:00,
2013-04-16 02:19:00,71.2,35.6,25.75,SW,223,0.0,0.0,27,0.00,,,0.00,VWS V14.00,2013-04-16 07:19:00,
2013-04-16 02:21:00,71.1,34.5,25.75,South,184,0.0,0.0,26,0.00,,,0.00,VWS V14.00,2013-04-16 07:21:00,
2013-04-16 02:22:00,71.2,34.6,25.75,SSW,194,0.0,0.0,26,0.00,,,0.00,VWS V14.00,2013-04-16 07:22:00,
2013-04-16 02:23:00,71.1,34.5,25.75,South,181,0.0,0.0,26,0.00,,,0.00,VWS V14.00,2013-04-16 07:23:00,
2013-04-16 02:24:00,71.1,34.5,25.75,South,175,0.0,0.0,26,0.00,,,0.00,VWS V14.00,2013-04-16 07:24:00,
2013-04-16 02:28:00,71.1,33.5,25.75,SSW,213,0.0,0.0,25,0.00,,,0.00,VWS V14.00,2013-04-16 07:28:00,
2013-04-16 02:29:00,71.2,32.6,25.75,South,184,0.0,0.0,24,0.00,,,0.00,VWS V14.00,2013-04-16 07:29:00,
2013-04-16 02:31:00,71.1,32.5,25.75,SSW,195,0.0,0.0,24,0.00,,,0.00,VWS V14.00,2013-04-16 07:31:00,
2013-04-16 02:34:00,71.1,32.5,25.75,South,171,0.0,0.0,24,0.00,,,0.00,VWS V14.00,2013-04-16 07:34:00,
2013-04-16 02:35:00,71.1,32.5,25.75,SSW,210,0.0,0.0,24,0.00,,,0.00,VWS V14.00,2013-04-16 07:35:00,
2013-04-16 02:36:00,71.1,32.5,25.75,SSW,192,0.0,0.0,24,0.00,,,0.00,VWS V14.00,2013-04-16 07:36:00,
2013-04-16 02:37:00,70.7,33.2,25.75,SSE,147,0.0,0.0,25,0.00,,,0.00,VWS V14.00,2013-04-16 07:37:00,
2013-04-16 02:39:00,70.7,34.2,25.75,SSW,202,0.0,0.0,26,0.00,,,0.00,VWS V14.00,2013-04-16 07:39:00,
2013-04-16 02:40:00,70.7,34.2,25.75,SW,216,0.0,0.0,26,0.00,,,0.00,VWS V14.00,2013-04-16 07:40:00,
2013-04-16 02:41:00,70.5,34.0,25.75,SSE,149,0.0,0.0,26,0.00,,,0.00,VWS V14.00,2013-04-16 07:41:00,
2013-04-16 02:42:00,70.5,35.0,25.75,South,176,0.0,0.0,27,0.00,,,0.00,VWS V14.00,2013-04-16 07:42:00,
2013-04-16 02:43:00,70.5,35.0,25.75,South,175,0.0,0.0,27,0.00,,,0.00,VWS V14.00,2013-04-16 07:43:00,
2013-04-16 02:45:00,70.5,35.0,25.75,South,188,0.0,0.0,27,0.00,,,0.00,VWS V14.00,2013-04-16 07:45:00,
2013-04-16 02:46:00,70.3,34.8,25.75,South,177,0.0,0.0,27,0.00,,,0.00,VWS V14.00,2013-04-16 07:46:00,
2013-04-16 02:47:00,70.5,35.0,25.75,South,191,0.0,0.0,27,0.00,,,0.00,VWS V14.00,2013-04-16 07:47:00,
2013-04-16 02:48:00,70.3,34.8,25.75,South,176,0.0,0.0,27,0.00,,,0.00,VWS V14.00,2013-04-16 07:48:00,
2013-04-16 02:49:00,70.2,34.7,25.75,South,185,0.0,0.0,27,0.00,,,0.00,VWS V14.00,2013-04-16 07:49:00,
2013-04-16 02:50:00,70.2,34.7,25.75,South,179,0.0,0.0,27,0.00,,,0.00,VWS V14.00,2013-04-16 07:50:00,
2013-04-16 02:51:00,70.0,35.4,25.75,SSW,203,0.0,0.0,28,0.00,,,0.00,VWS V14.00,2013-04-16 07:51:00,
2013-04-16 02:52:00,70.0,35.4,25.75,South,173,0.0,0.0,28,0.00,,,0.00,VWS V14.00,2013-04-16 07:52:00,
2013-04-16 02:53:00,70.2,34.7,25.75,SSE,157,0.0,0.0,27,0.00,,,0.00,VWS V14.00,2013-04-16 07:53:00,
2013-04-16 02:54:00,70.0,34.5,25.75,SW,220,0.0,0.0,27,0.00,,,0.00,VWS V14.00,2013-04-16 07:54:00,
2013-04-16 02:55:00,70.2,33.7,25.75,South,183,0.0,0.0,26,0.00,,,0.00,VWS V14.00,2013-04-16 07:55:00,
2013-04-16 02:57:00,70.2,32.7,25.75,South,189,0.0,0.0,25,0.00,,,0.00,VWS V14.00,2013-04-16 07:57:00,
2013-04-16 02:59:00,70.3,31.9,25.75,SSW,212,0.0,0.0,24,0.00,,,0.00,VWS V14.00,2013-04-16 07:59:00,
2013-04-16 03:00:00,70.3,31.9,25.75,South,171,0.0,0.0,24,0.00,,,0.00,VWS V14.00,2013-04-16 08:00:00,
2013-04-16 03:02:00,70.3,31.9,25.75,South,186,0.0,0.0,24,0.00,,,0.00,VWS V14.00,2013-04-16 08:02:00,
2013-04-16 03:03:00,70.3,31.9,25.75,SSE,159,0.0,0.0,24,0.00,,,0.00,VWS V14.00,2013-04-16 08:03:00,
2013-04-16 03:04:00,70.3,31.9,25.72,SSW,195,0.0,0.0,24,0.00,,,0.00,VWS V14.00,2013-04-16 08:04:00,
2013-04-16 03:06:00,70.2,31.7,25.72,SSE,153,0.0,0.0,24,0.00,,,0.00,VWS V14.00,2013-04-16 08:06:00,
2013-04-16 03:07:00,70.3,31.9,25.72,South,172,0.0,0.0,24,0.00,,,0.00,VWS V14.00,2013-04-16 08:07:00,
2013-04-16 03:08:00,70.3,31.9,25.72,South,183,0.0,0.0,24,0.00,,,0.00,VWS V14.00,2013-04-16 08:08:00,
2013-04-16 03:09:00,70.2,31.7,25.72,South,176,0.0,0.0,24,0.00,,,0.00,VWS V14.00,2013-04-16 08:09:00,
2013-04-16 03:13:00,70.2,31.7,25.72,South,190,0.0,0.0,24,0.00,,,0.00,VWS V14.00,2013-04-16 08:13:00,
2013-04-16 03:14:00,70.2,32.7,25.72,South,184,0.0,0.0,25,0.00,,,0.00,VWS V14.00,2013-04-16 08:14:00,
2013-04-16 03:15:00,70.2,32.7,25.72,SW,216,0.0,0.0,25,0.00,,,0.00,VWS V14.00,2013-04-16 08:15:00,
2013-04-16 03:18:00,70.2,32.7,25.72,SSE,166,0.0,0.0,25,0.00,,,0.00,VWS V14.00,2013-04-16 08:18:00,
2013-04-16 03:20:00,70.2,32.7,25.72,South,178,0.0,0.0,25,0.00,,,0.00,VWS V14.00,2013-04-16 08:20:00,
2013-04-16 03:21:00,70.2,32.7,25.72,SSE,167,0.0,0.0,25,0.00,,,0.00,VWS V14.00,2013-04-16 08:21:00,
2013-04-16 03:23:00,70.2,32.7,25.72,South,182,0.0,0.0,25,0.00,,,0.00,VWS V14.00,2013-04-16 08:23:00,
2013-04-16 03:25:00,70.2,33.7,25.72,South,169,0.0,0.0,26,0.00,,,0.00,VWS V14.00,2013-04-16 08:25:00,
2013-04-16 03:26:00,70.0,33.5,25.72,South,189,0.0,0.0,26,0.00,,,0.00,VWS V14.00,2013-04-16 08:26:00,
2013-04-16 03:27:00,70.0,33.5,25.72,South,172,0.0,0.0,26,0.00,,,0.00,VWS V14.00,2013-04-16 08:27:00,
2013-04-16 03:28:00,70.2,33.7,25.72,South,189,0.0,0.0,26,0.00,,,0.00,VWS V14.00,2013-04-16 08:28:00,
2013-04-16 03:30:00,70.2,33.7,25.72,South,188,0.0,0.0,26,0.00,,,0.00,VWS V14.00,2013-04-16 08:30:00,
2013-04-16 03:33:00,70.3,33.9,25.72,South,181,0.0,0.0,26,0.00,,,0.00,VWS V14.00,2013-04-16 08:33:00,
2013-04-16 03:34:00,70.3,32.9,25.72,South,177,0.0,0.0,25,0.00,,,0.00,VWS V14.00,2013-04-16 08:34:00,
2013-04-16 03:35:00,70.2,32.7,25.72,South,176,0.0,0.0,25,0.00,,,0.00,VWS V14.00,2013-04-16 08:35:00,
2013-04-16 03:36:00,70.2,32.7,25.72,SSE,155,0.0,0.0,25,0.00,,,0.00,VWS V14.00,2013-04-16 08:36:00,
2013-04-16 03:38:00,70.2,32.7,25.72,South,178,0.0,0.0,25,0.00,,,0.00,VWS V14.00,2013-04-16 08:38:00,
2013-04-16 03:39:00,70.2,32.7,25.72,South,184,0.0,0.0,25,0.00,,,0.00,VWS V14.00,2013-04-16 08:39:00,
2013-04-16 03:40:00,70.2,32.7,25.72,South,178,0.0,0.0,25,0.00,,,0.00,VWS V14.00,2013-04-16 08:40:00,
2013-04-16 03:43:00,70.0,31.6,25.72,SSE,157,0.0,0.0,24,0.00,,,0.00,VWS V14.00,2013-04-16 08:43:00,
2013-04-16 03:44:00,70.2,31.7,25.72,South,187,0.0,0.0,24,0.00,,,0.00,VWS V14.00,2013-04-16 08:44:00,
2013-04-16 03:45:00,70.2,30.7,25.72,SSW,194,0.0,0.0,23,0.00,,,0.00,VWS V14.00,2013-04-16 08:45:00,
2013-04-16 03:47:00,70.2,30.7,25.72,SSE,165,0.0,0.0,23,0.00,,,0.00,VWS V14.00,2013-04-16 08:47:00,
2013-04-16 03:48:00,70.2,30.7,25.72,South,187,0.0,0.0,23,0.00,,,0.00,VWS V14.00,2013-04-16 08:48:00,
2013-04-16 03:49:00,70.0,30.5,25.72,South,191,0.0,0.0,23,0.00,,,0.00,VWS V14.00,2013-04-16 08:49:00,
2013-04-16 03:52:00,69.8,31.4,25.72,SSW,194,0.0,0.0,24,0.00,,,0.00,VWS V14.00,2013-04-16 08:52:00,
2013-04-16 03:53:00,69.8,31.4,25.72,SSW,194,0.0,0.0,24,0.00,,,0.00,VWS V14.00,2013-04-16 08:53:00,
2013-04-16 03:54:00,69.8,31.4,25.72,South,187,0.0,0.0,24,0.00,,,0.00,VWS V14.00,2013-04-16 08:54:00,
2013-04-16 03:55:00,70.0,30.5,25.72,South,185,0.0,0.0,23,0.00,,,0.00,VWS V14.00,2013-04-16 08:55:00,
2013-04-16 03:58:00,70.0,30.5,25.72,South,183,0.0,0.0,23,0.00,,,0.00,VWS V14.00,2013-04-16 08:58:00,
2013-04-16 03:59:00,70.0,30.5,25.72,SSW,192,0.0,0.0,23,0.00,,,0.00,VWS V14.00,2013-04-16 08:59:00,
2013-04-16 04:01:00,70.2,30.7,25.72,South,179,0.0,0.0,23,0.00,,,0.00,VWS V14.00,2013-04-16 09:01:00,
2013-04-16 04:03:00,70.2,29.6,25.72,SSW,207,0.0,0.0,22,0.00,,,0.00,VWS V14.00,2013-04-16 09:03:00,
2013-04-16 04:05:00,70.2,29.6,25.69,South,184,0.0,0.0,22,0.00,,,0.00,VWS V14.00,2013-04-16 09:05:00,
2013-04-16 04:06:00,70.3,29.7,25.69,SSW,204,0.0,0.0,22,0.00,,,0.00,VWS V14.00,2013-04-16 09:06:00,
2013-04-16 04:09:00,70.2,29.6,25.69,South,175,0.0,0.0,22,0.00,,,0.00,VWS V14.00,2013-04-16 09:09:00,
2013-04-16 04:12:00,70.3,28.6,25.69,South,186,0.0,0.0,21,0.00,,,0.00,VWS V14.00,2013-04-16 09:12:00,
2013-04-16 04:13:00,70.3,28.6,25.69,South,186,0.0,0.0,21,0.00,,,0.00,VWS V14.00,2013-04-16 09:13:00,
2013-04-16 04:14:00,70.3,28.6,25.69,SSE,160,0.0,0.0,21,0.00,,,0.00,VWS V14.00,2013-04-16 09:14:00,
2013-04-16 04:15:00,70.3,28.6,25.69,South,178,0.0,0.0,21,0.00,,,0.00,VWS V14.00,2013-04-16 09:15:00,
2013-04-16 04:17:00,70.3,28.6,25.69,South,187,0.0,0.0,21,0.00,,,0.00,VWS V14.00,2013-04-16 09:17:00,
2013-04-16 04:18:00,70.3,28.6,25.69,South,172,0.0,0.0,21,0.00,,,0.00,VWS V14.00,2013-04-16 09:18:00,
2013-04-16 04:19:00,70.3,28.6,25.69,SSE,152,0.0,0.0,21,0.00,,,0.00,VWS V14.00,2013-04-16 09:19:00,
2013-04-16 04:20:00,70.3,28.6,25.69,SSE,152,0.0,0.0,21,0.00,,,0.00,VWS V14.00,2013-04-16 09:20:00,
2013-04-16 04:21:00,70.3,28.6,25.69,South,178,0.0,0.0,21,0.00,,,0.00,VWS V14.00,2013-04-16 09:21:00,
2013-04-16 04:23:00,70.3,28.6,25.69,SSW,198,0.0,0.0,21,0.00,,,0.00,VWS V14.00,2013-04-16 09:23:00,
2013-04-16 04:24:00,70.3,28.6,25.69,South,171,0.0,0.0,21,0.00,,,0.00,VWS V14.00,2013-04-16 09:24:00,
2013-04-16 04:25:00,70.3,28.6,25.69,South,188,0.0,0.0,21,0.00,,,0.00,VWS V14.00,2013-04-16 09:25:00,
2013-04-16 04:27:00,70.3,28.6,25.69,SSW,210,0.0,0.0,21,0.00,,,0.00,VWS V14.00,2013-04-16 09:27:00,
2013-04-16 04:29:00,70.3,28.6,25.69,SSE,149,0.0,0.0,21,0.00,,,0.00,VWS V14.00,2013-04-16 09:29:00,
2013-04-16 04:30:00,70.3,27.4,25.69,South,184,0.0,0.0,20,0.00,,,0.00,VWS V14.00,2013-04-16 09:30:00,
2013-04-16 04:32:00,70.3,28.6,25.69,South,176,0.0,0.0,21,0.00,,,0.00,VWS V14.00,2013-04-16 09:32:00,
2013-04-16 04:34:00,70.3,28.6,25.69,SSW,198,0.0,0.0,21,0.00,,,0.00,VWS V14.00,2013-04-16 09:34:00,
2013-04-16 04:35:00,70.3,28.6,25.69,SSE,157,0.0,0.0,21,0.00,,,0.00,VWS V14.00,2013-04-16 09:35:00,
2013-04-16 04:36:00,70.3,28.6,25.69,South,177,0.0,0.0,21,0.00,,,0.00,VWS V14.00,2013-04-16 09:36:00,
2013-04-16 04:37:00,70.2,28.4,25.69,South,179,0.0,0.0,21,0.00,,,0.00,VWS V14.00,2013-04-16 09:37:00,
2013-04-16 04:39:00,70.2,28.4,25.69,South,191,0.0,0.0,21,0.00,,,0.00,VWS V14.00,2013-04-16 09:39:00,
2013-04-16 04:40:00,70.2,28.4,25.69,South,170,0.0,0.0,21,0.00,,,0.00,VWS V14.00,2013-04-16 09:40:00,
2013-04-16 04:41:00,70.3,28.6,25.69,South,190,0.0,0.0,21,0.00,,,0.00,VWS V14.00,2013-04-16 09:41:00,
2013-04-16 04:42:00,70.3,28.6,25.69,SSW,208,0.0,0.0,21,0.00,,,0.00,VWS V14.00,2013-04-16 09:42:00,
2013-04-16 04:43:00,70.3,28.6,25.69,SW,229,0.0,0.0,21,0.00,,,0.00,VWS V14.00,2013-04-16 09:43:00,
2013-04-16 04:45:00,70.2,28.4,25.69,South,170,0.0,0.0,21,0.00,,,0.00,VWS V14.00,2013-04-16 09:45:00,
2013-04-16 04:47:00,70.3,28.6,25.69,South,172,0.0,0.0,21,0.00,,,0.00,VWS V14.00,2013-04-16 09:47:00,
2013-04-16 04:48:00,70.3,28.6,25.69,SSW,193,0.0,0.0,21,0.00,,,0.00,VWS V14.00,2013-04-16 09:48:00,
2013-04-16 04:49:00,70.3,28.6,25.69,SSE,167,0.0,0.0,21,0.00,,,0.00,VWS V14.00,2013-04-16 09:49:00,
2013-04-16 04:52:00,70.2,28.4,25.69,SSW,194,0.0,0.0,21,0.00,,,0.00,VWS V14.00,2013-04-16 09:52:00,
2013-04-16 04:53:00,70.2,28.4,25.69,South,189,0.0,0.0,21,0.00,,,0.00,VWS V14.00,2013-04-16 09:53:00,
2013-04-16 04:56:00,70.2,28.4,25.69,South,189,0.0,0.0,21,0.00,,,0.00,VWS V14.00,2013-04-16 09:56:00,
2013-04-16 04:57:00,70.2,29.6,25.69,SSW,194,0.0,0.0,22,0.00,,,0.00,VWS V14.00,2013-04-16 09:57:00,
2013-04-16 04:59:00,70.0,29.4,25.69,South,181,0.0,0.0,22,0.00,,,0.00,VWS V14.00,2013-04-16 09:59:00,
2013-04-16 05:00:00,70.0,29.4,25.69,SSE,155,0.0,0.0,22,0.00,,,0.00,VWS V14.00,2013-04-16 10:00:00,
2013-04-16 05:01:00,69.8,29.3,25.69,South,178,0.0,0.0,22,0.00,,,0.00,VWS V14.00,2013-04-16 10:01:00,
2013-04-16 05:02:00,69.8,29.3,25.69,South,186,0.0,0.0,22,0.00,,,0.00,VWS V14.00,2013-04-16 10:02:00,
2013-04-16 05:04:00,69.6,30.2,25.69,South,172,0.0,0.0,23,0.00,,,0.00,VWS V14.00,2013-04-16 10:04:00,
2013-04-16 05:05:00,69.6,30.2,25.69,South,189,0.0,0.0,23,0.00,,,0.00,VWS V14.00,2013-04-16 10:05:00,
2013-04-16 05:06:00,69.6,30.2,25.69,South,172,0.0,0.0,23,0.00,,,0.00,VWS V14.00,2013-04-16 10:06:00,
2013-04-16 05:07:00,69.8,29.3,25.69,South,184,0.0,0.0,22,0.00,,,0.00,VWS V14.00,2013-04-16 10:07:00,
2013-04-16 05:09:00,69.8,29.3,25.69,South,186,0.0,0.0,22,0.00,,,0.00,VWS V14.00,2013-04-16 10:09:00,
2013-04-16 05:10:00,69.8,29.3,25.69,South,179,0.0,0.0,22,0.00,,,0.00,VWS V14.00,2013-04-16 10:10:00,
2013-04-16 05:12:00,69.8,29.3,25.69,SSE,167,0.0,0.0,22,0.00,,,0.00,VWS V14.00,2013-04-16 10:12:00,
2013-04-16 05:13:00,69.8,29.3,25.69,SSE,158,0.0,0.0,22,0.00,,,0.00,VWS V14.00,2013-04-16 10:13:00,
2013-04-16 05:16:00,70.0,28.3,25.69,South,177,0.0,0.0,21,0.00,,,0.00,VWS V14.00,2013-04-16 10:16:00,
2013-04-16 05:17:00,70.0,28.3,25.69,SSE,165,0.0,0.0,21,0.00,,,0.00,VWS V14.00,2013-04-16 10:17:00,
2013-04-16 05:19:00,70.0,28.3,25.69,SSE,167,0.0,0.0,21,0.00,,,0.00,VWS V14.00,2013-04-16 10:19:00,
2013-04-16 05:21:00,69.8,28.1,25.69,SSW,205,0.0,0.0,21,0.00,,,0.00,VWS V14.00,2013-04-16 10:21:00,
2013-04-16 05:23:00,69.8,28.1,25.69,SSW,206,0.0,0.0,21,0.00,,,0.00,VWS V14.00,2013-04-16 10:23:00,
2013-04-16 05:24:00,70.0,28.3,25.69,South,176,0.0,0.0,21,0.00,,,0.00,VWS V14.00,2013-04-16 10:24:00,
2013-04-16 05:25:00,70.0,28.3,25.69,SSE,155,0.0,0.0,21,0.00,,,0.00,VWS V14.00,2013-04-16 10:25:00,
2013-04-16 05:28:00,70.0,28.3,25.69,SSE,160,0.0,0.0,21,0.00,,,0.00,VWS V14.00,2013-04-16 10:28:00,
2013-04-16 05:29:00,70.0,28.3,25.69,South,181,0.0,0.0,21,0.00,,,0.00,VWS V14.00,2013-04-16 10:29:00,
2013-04-16 05:32:00,70.2,28.4,25.69,South,179,0.0,0.0,21,0.00,,,0.00,VWS V14.00,2013-04-16 10:32:00,
2013-04-16 05:34:00,70.0,28.3,25.69,SSW,195,0.0,0.0,21,0.00,,,0.00,VWS V14.00,2013-04-16 10:34:00,
2013-04-16 05:36:00,70.0,28.3,25.69,SSW,196,0.0,0.0,21,0.00,,,0.00,VWS V14.00,2013-04-16 10:36:00,
2013-04-16 05:38:00,70.0,28.3,25.69,SSW,199,0.0,0.0,21,0.00,,,0.00,VWS V14.00,2013-04-16 10:38:00,
2013-04-16 05:39:00,70.0,28.3,25.69,SSW,198,0.0,0.0,21,0.00,,,0.00,VWS V14.00,2013-04-16 10:39:00,
2013-04-16 05:41:00,70.0,28.3,25.69,SSW,202,0.0,0.0,21,0.00,,,0.00,VWS V14.00,2013-04-16 10:41:00,
2013-04-16 05:43:00,70.0,28.3,25.69,South,189,0.0,0.0,21,0.00,,,0.00,VWS V14.00,2013-04-16 10:43:00,
2013-04-16 05:44:00,70.0,29.4,25.69,SSW,196,0.0,0.0,22,0.00,,,0.00,VWS V14.00,2013-04-16 10:44:00,
2013-04-16 05:45:00,70.0,29.4,25.69,SSW,198,0.0,0.0,22,0.00,,,0.00,VWS V14.00,2013-04-16 10:45:00,
2013-04-16 05:47:00,69.8,29.3,25.69,South,189,0.0,0.0,22,0.00,,,0.00,VWS V14.00,2013-04-16 10:47:00,
2013-04-16 05:49:00,69.8,29.3,25.69,SSW,194,0.0,0.0,22,0.00,,,0.00,VWS V14.00,2013-04-16 10:49:00,
2013-04-16 05:50:00,69.8,29.3,25.69,South,181,0.0,0.0,22,0.00,,,0.00,VWS V14.00,2013-04-16 10:50:00,
2013-04-16 05:51:00,69.8,29.3,25.69,SSW,202,0.0,0.0,22,0.00,,,0.00,VWS V14.00,2013-04-16 10:51:00,
2013-04-16 05:53:00,69.6,30.2,25.69,SSW,196,0.0,0.0,23,0.00,,,0.00,VWS V14.00,2013-04-16 10:53:00,
2013-04-16 05:54:00,69.6,30.2,25.69,South,185,0.0,0.0,23,0.00,,,0.00,VWS V14.00,2013-04-16 10:54:00,
2013-04-16 05:55:00,69.6,30.2,25.69,SSW,197,0.0,0.0,23,0.00,,,0.00,VWS V14.00,2013-04-16 10:55:00,
2013-04-16 05:56:00,69.6,30.2,25.69,SSW,196,0.0,0.0,23,0.00,,,0.00,VWS V14.00,2013-04-16 10:56:00,
2013-04-16 05:58:00,69.4,30.1,25.69,South,184,0.0,0.0,23,0.00,,,0.00,VWS V14.00,2013-04-16 10:58:00,
2013-04-16 06:00:00,69.4,30.1,25.69,South,175,0.0,0.0,23,0.00,,,0.00,VWS V14.00,2013-04-16 11:00:00,
2013-04-16 06:02:00,69.3,31.0,25.69,South,174,0.0,0.0,24,0.00,,,0.00,VWS V14.00,2013-04-16 11:02:00,
2013-04-16 06:04:00,69.3,31.0,25.69,South,191,0.0,0.0,24,0.00,,,0.00,VWS V14.00,2013-04-16 11:04:00,
2013-04-16 06:05:00,69.3,31.0,25.69,SSW,196,0.0,0.0,24,0.00,,,0.00,VWS V14.00,2013-04-16 11:05:00,
2013-04-16 06:07:00,69.1,30.8,25.69,South,181,0.0,0.0,24,0.00,,,0.00,VWS V14.00,2013-04-16 11:07:00,
2013-04-16 06:09:00,68.9,31.7,25.69,South,174,0.0,0.0,25,0.00,,,0.00,VWS V14.00,2013-04-16 11:09:00,
2013-04-16 06:10:00,68.9,31.7,25.69,SSW,200,0.0,0.0,25,0.00,,,0.00,VWS V14.00,2013-04-16 11:10:00,
2013-04-16 06:12:00,68.7,31.5,25.69,South,184,0.0,0.0,25,0.00,,,0.00,VWS V14.00,2013-04-16 11:12:00,
2013-04-16 06:13:00,68.7,31.5,25.69,South,187,0.0,0.0,25,0.00,,,0.00,VWS V14.00,2013-04-16 11:13:00,
2013-04-16 06:14:00,68.7,31.5,25.69,South,189,0.0,0.0,25,0.00,,,0.00,VWS V14.00,2013-04-16 11:14:00,
2013-04-16 06:15:00,68.7,31.5,25.69,South,189,0.0,0.0,25,0.00,,,0.00,VWS V14.00,2013-04-16 11:15:00,
2013-04-16 06:17:00,68.5,32.3,25.69,South,189,0.0,0.0,26,0.00,,,0.00,VWS V14.00,2013-04-16 11:17:00,
2013-04-16 06:18:00,68.5,32.3,25.69,SSW,192,0.0,0.0,26,0.00,,,0.00,VWS V14.00,2013-04-16 11:18:00,
2013-04-16 06:20:00,68.5,33.3,25.69,South,185,0.0,0.0,27,0.00,,,0.00,VWS V14.00,2013-04-16 11:20:00,
2013-04-16 06:23:00,68.5,33.3,25.69,SE,139,0.0,0.0,27,0.00,,,0.00,VWS V14.00,2013-04-16 11:23:00,
2013-04-16 06:24:00,68.5,33.3,25.69,South,175,0.0,0.0,27,0.00,,,0.00,VWS V14.00,2013-04-16 11:24:00,
2013-04-16 06:25:00,68.5,33.3,25.69,South,186,0.0,0.0,27,0.00,,,0.00,VWS V14.00,2013-04-16 11:25:00,
2013-04-16 06:27:00,68.7,33.4,25.69,SSW,192,0.0,0.0,27,0.00,,,0.00,VWS V14.00,2013-04-16 11:27:00,
2013-04-16 06:29:00,68.5,33.3,25.69,SSW,195,0.0,0.0,27,0.00,,,0.00,VWS V14.00,2013-04-16 11:29:00,
2013-04-16 06:32:00,68.5,33.3,25.69,South,185,0.0,0.0,27,0.00,,,0.00,VWS V14.00,2013-04-16 11:32:00,
2013-04-16 06:33:00,68.5,33.3,25.69,SSW,195,0.0,0.0,27,0.00,,,0.00,VWS V14.00,2013-04-16 11:33:00,
2013-04-16 06:34:00,68.5,33.3,25.69,South,188,0.0,0.0,27,0.00,,,0.00,VWS V14.00,2013-04-16 11:34:00,
2013-04-16 06:35:00,68.5,33.3,25.69,South,183,0.0,0.0,27,0.00,,,0.00,VWS V14.00,2013-04-16 11:35:00,
2013-04-16 06:38:00,68.7,32.5,25.69,South,176,0.0,0.0,26,0.00,,,0.00,VWS V14.00,2013-04-16 11:38:00,
2013-04-16 06:39:00,68.7,32.5,25.69,SSW,196,0.0,0.0,26,0.00,,,0.00,VWS V14.00,2013-04-16 11:39:00,
2013-04-16 06:40:00,68.7,32.5,25.69,South,171,0.0,0.0,26,0.00,,,0.00,VWS V14.00,2013-04-16 11:40:00,
2013-04-16 06:41:00,68.7,32.5,25.69,SSW,192,0.0,0.0,26,0.00,,,0.00,VWS V14.00,2013-04-16 11:41:00,
2013-04-16 06:43:00,68.9,32.6,25.69,South,183,0.0,0.0,26,0.00,,,0.00,VWS V14.00,2013-04-16 11:43:00,
2013-04-16 06:44:00,68.9,32.6,25.69,South,183,0.0,0.0,26,0.00,,,0.00,VWS V14.00,2013-04-16 11:44:00,
2013-04-16 06:45:00,68.9,32.6,25.69,South,183,0.0,0.0,26,0.00,,,0.00,VWS V14.00,2013-04-16 11:45:00,
2013-04-16 06:47:00,68.9,32.6,25.69,SSW,195,0.0,0.0,26,0.00,,,0.00,VWS V14.00,2013-04-16 11:47:00,
2013-04-16 06:49:00,68.7,32.5,25.72,South,177,0.0,0.0,26,0.00,,,0.00,VWS V14.00,2013-04-16 11:49:00,
2013-04-16 06:51:00,68.7,32.5,25.72,SSW,194,0.0,0.0,26,0.00,,,0.00,VWS V14.00,2013-04-16 11:51:00,
2013-04-16 06:52:00,68.7,32.5,25.72,SSW,194,0.0,0.0,26,0.00,,,0.00,VWS V14.00,2013-04-16 11:52:00,
2013-04-16 06:55:00,68.4,32.2,25.72,South,189,0.0,0.0,26,0.00,,,0.00,VWS V14.00,2013-04-16 11:55:00,
2013-04-16 06:57:00,68.2,33.0,25.72,SSW,192,0.0,0.0,27,0.00,,,0.00,VWS V14.00,2013-04-16 11:57:00,
2013-04-16 06:58:00,68.2,33.0,25.72,SSW,192,0.0,0.0,27,0.00,,,0.00,VWS V14.00,2013-04-16 11:58:00,
2013-04-16 07:00:00,68.0,32.8,25.72,SSW,192,0.0,0.0,27,0.00,,,0.00,VWS V14.00,2013-04-16 12:00:00,
2013-04-16 07:02:00,67.8,33.5,25.72,SSW,192,0.0,0.0,28,0.00,,,0.00,VWS V14.00,2013-04-16 12:02:00,
2013-04-16 07:03:00,67.8,33.5,25.72,SSW,192,0.0,0.0,28,0.00,,,0.00,VWS V14.00,2013-04-16 12:03:00,
2013-04-16 07:07:00,67.8,34.4,25.72,SSW,192,0.0,0.0,29,0.00,,,0.00,VWS V14.00,2013-04-16 12:07:00,
2013-04-16 07:08:00,67.8,34.4,25.72,SSW,192,0.0,0.0,29,0.00,,,0.00,VWS V14.00,2013-04-16 12:08:00,
2013-04-16 07:09:00,67.8,34.4,25.72,SSW,192,0.0,0.0,29,0.00,,,0.00,VWS V14.00,2013-04-16 12:09:00,
2013-04-16 07:12:00,67.8,34.4,25.72,SSW,192,0.0,0.0,29,0.00,,,0.00,VWS V14.00,2013-04-16 12:12:00,
2013-04-16 07:13:00,67.8,34.4,25.72,South,180,0.0,0.0,29,0.00,,,0.00,VWS V14.00,2013-04-16 12:13:00,
2013-04-16 07:14:00,67.8,34.4,25.72,South,180,0.0,0.0,29,0.00,,,0.00,VWS V14.00,2013-04-16 12:14:00,
2013-04-16 07:15:00,67.8,34.4,25.72,South,180,0.0,0.0,29,0.00,,,0.00,VWS V14.00,2013-04-16 12:15:00,
2013-04-16 07:16:00,67.8,34.4,25.72,South,180,0.0,0.0,29,0.00,,,0.00,VWS V14.00,2013-04-16 12:16:00,
2013-04-16 07:17:00,67.8,34.4,25.72,South,191,0.0,0.0,29,0.00,,,0.00,VWS V14.00,2013-04-16 12:17:00,
2013-04-16 07:19:00,67.8,34.4,25.72,South,175,0.0,0.0,29,0.00,,,0.00,VWS V14.00,2013-04-16 12:19:00,
2013-04-16 07:22:00,67.6,34.3,25.69,South,173,0.0,0.0,29,0.00,,,0.00,VWS V14.00,2013-04-16 12:22:00,
2013-04-16 07:23:00,67.6,35.1,25.69,South,176,0.0,0.0,30,0.00,,,0.00,VWS V14.00,2013-04-16 12:23:00,
2013-04-16 07:24:00,67.6,34.3,25.69,South,176,0.0,0.0,29,0.00,,,0.00,VWS V14.00,2013-04-16 12:24:00,
2013-04-16 07:25:00,67.6,35.1,25.69,South,177,0.0,0.0,30,0.00,,,0.00,VWS V14.00,2013-04-16 12:25:00,
2013-04-16 07:26:00,67.6,35.1,25.69,South,184,0.0,0.0,30,0.00,,,0.00,VWS V14.00,2013-04-16 12:26:00,
2013-04-16 07:27:00,67.6,35.1,25.69,South,184,0.0,0.0,30,0.00,,,0.00,VWS V14.00,2013-04-16 12:27:00,
2013-04-16 07:28:00,67.6,35.1,25.69,South,184,0.0,0.0,30,0.00,,,0.00,VWS V14.00,2013-04-16 12:28:00,
2013-04-16 07:29:00,67.6,35.1,25.69,South,184,0.0,0.0,30,0.00,,,0.00,VWS V14.00,2013-04-16 12:29:00,
2013-04-16 07:30:00,67.8,35.3,25.69,South,184,0.0,0.0,30,0.00,,,0.00,VWS V14.00,2013-04-16 12:30:00,
2013-04-16 07:31:00,67.8,35.3,25.69,South,186,0.0,0.0,30,0.00,,,0.00,VWS V14.00,2013-04-16 12:31:00,
2013-04-16 07:34:00,67.8,35.3,25.69,South,172,0.0,0.0,30,0.00,,,0.00,VWS V14.00,2013-04-16 12:34:00,
2013-04-16 07:35:00,67.8,35.3,25.69,South,187,0.0,0.0,30,0.00,,,0.00,VWS V14.00,2013-04-16 12:35:00,
2013-04-16 07:36:00,68.0,34.6,25.69,South,186,0.0,0.0,29,0.00,,,0.00,VWS V14.00,2013-04-16 12:36:00,
2013-04-16 07:37:00,68.0,34.6,25.69,South,186,0.0,0.0,29,0.00,,,0.00,VWS V14.00,2013-04-16 12:37:00,
2013-04-16 07:40:00,68.0,34.6,25.69,South,182,0.0,0.0,29,0.00,,,0.00,VWS V14.00,2013-04-16 12:40:00,
2013-04-16 07:42:00,68.2,34.7,25.69,South,182,0.0,0.0,29,0.00,,,0.00,VWS V14.00,2013-04-16 12:42:00,
2013-04-16 07:44:00,68.0,34.6,25.69,South,181,0.0,0.0,29,0.00,,,0.00,VWS V14.00,2013-04-16 12:44:00,
2013-04-16 07:45:00,68.0,34.6,25.69,South,181,0.0,0.0,29,0.00,,,0.00,VWS V14.00,2013-04-16 12:45:00,
2013-04-16 07:47:00,67.8,34.4,25.69,South,181,0.0,0.0,29,0.00,,,0.00,VWS V14.00,2013-04-16 12:47:00,
2013-04-16 07:48:00,67.8,34.4,25.69,South,181,0.0,0.0,29,0.00,,,0.00,VWS V14.00,2013-04-16 12:48:00,
2013-04-16 07:49:00,67.6,34.3,25.72,South,181,0.0,0.0,29,0.00,,,0.00,VWS V14.00,2013-04-16 12:49:00,
2013-04-16 07:50:00,67.6,34.3,25.72,South,185,0.0,0.0,29,0.00,,,0.00,VWS V14.00,2013-04-16 12:50:00,
2013-04-16 07:52:00,67.6,35.1,25.72,SSW,194,0.0,0.0,30,0.00,,,0.00,VWS V14.00,2013-04-16 12:52:00,
2013-04-16 07:53:00,67.6,35.1,25.72,SSW,194,0.0,0.0,30,0.00,,,0.00,VWS V14.00,2013-04-16 12:53:00,
2013-04-16 07:55:00,67.6,35.1,25.72,SSW,194,0.0,0.0,30,0.00,,,0.00,VWS V14.00,2013-04-16 12:55:00,
2013-04-16 07:58:00,67.5,35.0,25.72,SSW,194,0.0,0.0,30,0.00,,,0.00,VWS V14.00,2013-04-16 12:58:00,
2013-04-16 07:59:00,67.5,35.0,25.72,SSW,194,0.0,0.0,30,0.00,,,0.00,VWS V14.00,2013-04-16 12:59:00,
2013-04-16 08:00:00,67.5,35.0,25.72,SSW,194,0.0,0.0,30,0.00,,,0.00,VWS V14.00,2013-04-16 13:00:00,
2013-04-16 08:01:00,67.5,35.8,25.72,SSW,194,0.0,0.0,31,0.00,,,0.00,VWS V14.00,2013-04-16 13:01:00,
2013-04-16 08:03:00,67.6,35.1,25.72,SSW,194,0.0,0.0,30,0.00,,,0.00,VWS V14.00,2013-04-16 13:03:00,
2013-04-16 08:04:00,67.6,35.1,25.72,SSE,159,0.0,0.0,30,0.00,,,0.00,VWS V14.00,2013-04-16 13:04:00,
2013-04-16 08:06:00,67.6,35.1,25.72,South,180,0.0,0.0,30,0.00,,,0.00,VWS V14.00,2013-04-16 13:06:00,
2013-04-16 08:07:00,67.8,35.3,25.72,SSE,167,0.0,0.0,30,0.00,,,0.00,VWS V14.00,2013-04-16 13:07:00,
2013-04-16 08:08:00,67.8,35.3,25.72,South,187,0.0,0.0,30,0.00,,,0.00,VWS V14.00,2013-04-16 13:08:00,
2013-04-16 08:09:00,67.8,35.3,25.72,South,187,0.0,0.0,30,0.00,,,0.00,VWS V14.00,2013-04-16 13:09:00,
2013-04-16 08:11:00,67.8,34.4,25.72,South,187,0.0,0.0,29,0.00,,,0.00,VWS V14.00,2013-04-16 13:11:00,
2013-04-16 08:12:00,67.8,34.4,25.72,South,187,0.0,0.0,29,0.00,,,0.00,VWS V14.00,2013-04-16 13:12:00,
2013-04-16 08:14:00,67.8,34.4,25.72,South,184,0.0,0.0,29,0.00,,,0.00,VWS V14.00,2013-04-16 13:14:00,
2013-04-16 08:15:00,67.8,35.3,25.72,South,188,0.0,0.0,30,0.00,,,0.00,VWS V14.00,2013-04-16 13:15:00,
2013-04-16 08:16:00,68.0,34.6,25.72,South,186,0.0,0.0,29,0.00,,,0.00,VWS V14.00,2013-04-16 13:16:00,
2013-04-16 08:17:00,68.0,34.6,25.72,South,186,0.0,0.0,29,0.00,,,0.00,VWS V14.00,2013-04-16 13:17:00,
2013-04-16 08:20:00,68.2,34.7,25.72,South,184,0.0,0.0,29,0.00,,,0.00,VWS V14.00,2013-04-16 13:20:00,
2013-04-16 08:21:00,68.2,34.7,25.72,South,190,0.0,0.0,29,0.00,,,0.00,VWS V14.00,2013-04-16 13:21:00,
2013-04-16 08:22:00,68.4,34.9,25.72,South,188,0.0,0.0,29,0.00,,,0.00,VWS V14.00,2013-04-16 13:22:00,
2013-04-16 08:25:00,68.5,34.2,25.72,SSW,192,0.0,0.0,28,0.00,,,0.00,VWS V14.00,2013-04-16 13:25:00,
2013-04-16 08:27:00,68.9,34.5,25.72,SSW,193,0.0,0.0,28,0.00,,,0.00,VWS V14.00,2013-04-16 13:27:00,
2013-04-16 08:30:00,69.3,33.9,25.72,South,183,0.0,0.0,27,0.00,,,0.00,VWS V14.00,2013-04-16 13:30:00,
2013-04-16 08:32:00,69.6,33.2,25.72,SSE,159,0.0,0.0,26,0.00,,,0.00,VWS V14.00,2013-04-16 13:32:00,
2013-04-16 08:33:00,69.8,32.4,25.72,South,183,0.0,0.0,25,0.00,,,0.00,VWS V14.00,2013-04-16 13:33:00,
2013-04-16 08:35:00,70.3,31.9,25.72,South,189,0.0,0.0,24,0.00,,,0.00,VWS V14.00,2013-04-16 13:35:00,
2013-04-16 08:38:00,70.5,31.0,25.72,South,179,0.0,0.0,23,0.00,,,0.00,VWS V14.00,2013-04-16 13:38:00,
2013-04-16 08:39:00,70.7,30.0,25.72,South,179,0.0,0.0,22,0.00,,,0.00,VWS V14.00,2013-04-16 13:39:00,
2013-04-16 08:41:00,71.2,30.5,25.72,South,183,0.0,0.0,22,0.00,,,0.00,VWS V14.00,2013-04-16 13:41:00,
2013-04-16 08:43:00,71.2,29.3,25.72,South,183,0.0,0.0,21,0.00,,,0.00,VWS V14.00,2013-04-16 13:43:00,
2013-04-16 08:44:00,71.4,29.5,25.72,South,183,0.0,0.0,21,0.00,,,0.00,VWS V14.00,2013-04-16 13:44:00,
2013-04-16 08:45:00,71.4,29.5,25.72,South,189,0.0,0.0,21,0.00,,,0.00,VWS V14.00,2013-04-16 13:45:00,
2013-04-16 08:47:00,72.0,28.7,25.72,SE,146,0.0,0.0,20,0.00,,,0.00,VWS V14.00,2013-04-16 13:47:00,
2013-04-16 08:48:00,71.8,27.3,25.72,South,180,0.0,0.0,19,0.00,,,0.00,VWS V14.00,2013-04-16 13:48:00,
2013-04-16 08:49:00,72.0,27.5,25.72,South,179,0.0,0.0,19,0.00,,,0.00,VWS V14.00,2013-04-16 13:49:00,
2013-04-16 08:51:00,71.6,28.4,25.72,South,182,0.0,0.0,20,0.00,,,0.00,VWS V14.00,2013-04-16 13:51:00,
2013-04-16 08:52:00,71.4,28.3,25.72,SSE,165,0.0,0.0,20,0.00,,,0.00,VWS V14.00,2013-04-16 13:52:00,
2013-04-16 08:54:00,71.8,28.6,25.72,South,186,0.0,0.0,20,0.00,,,0.00,VWS V14.00,2013-04-16 13:54:00,
2013-04-16 08:56:00,71.2,28.1,25.72,South,176,0.0,0.0,20,0.00,,,0.00,VWS V14.00,2013-04-16 13:56:00,
2013-04-16 08:58:00,70.9,27.9,25.72,South,181,0.0,0.0,20,0.00,,,0.00,VWS V14.00,2013-04-16 13:58:00,
2013-04-16 08:59:00,71.2,28.1,25.72,South,174,0.0,0.0,20,0.00,,,0.00,VWS V14.00,2013-04-16 13:59:00,
2013-04-16 09:02:00,71.1,29.2,25.72,SSE,162,0.0,0.0,21,0.00,,,0.00,VWS V14.00,2013-04-16 14:02:00,
2013-04-16 09:03:00,71.4,28.3,25.72,South,172,0.0,0.0,20,0.00,,,0.00,VWS V14.00,2013-04-16 14:03:00,
2013-04-16 09:04:00,71.4,28.3,25.72,ESE,107,0.0,0.0,20,0.00,,,0.00,VWS V14.00,2013-04-16 14:04:00,
2013-04-16 09:05:00,71.6,28.4,25.72,SSW,197,0.0,0.0,20,0.00,,,0.00,VWS V14.00,2013-04-16 14:05:00,
2013-04-16 09:06:00,71.4,28.3,25.72,South,182,0.0,0.0,20,0.00,,,0.00,VWS V14.00,2013-04-16 14:06:00,
2013-04-16 09:09:00,71.8,27.3,25.72,SSW,192,0.0,0.0,19,0.00,,,0.00,VWS V14.00,2013-04-16 14:09:00,
2013-04-16 09:10:00,72.5,27.9,25.72,SE,141,0.0,0.0,19,0.00,,,0.00,VWS V14.00,2013-04-16 14:10:00,
2013-04-16 09:12:00,73.0,28.4,25.72,South,183,0.0,0.0,19,0.00,,,0.00,VWS V14.00,2013-04-16 14:12:00,
2013-04-16 09:14:00,73.0,27.1,25.72,SSW,197,0.0,0.0,18,0.00,,,0.00,VWS V14.00,2013-04-16 14:14:00,
2013-04-16 09:15:00,72.9,26.9,25.72,SSE,165,0.0,0.0,18,0.00,,,0.00,VWS V14.00,2013-04-16 14:15:00,
2013-04-16 09:17:00,73.8,27.6,25.72,SSE,165,0.0,0.0,18,0.00,,,0.00,VWS V14.00,2013-04-16 14:17:00,
2013-04-16 09:19:00,73.4,27.4,25.72,South,172,0.0,0.0,18,0.00,,,0.00,VWS V14.00,2013-04-16 14:19:00,
2013-04-16 09:20:00,74.5,26.9,25.72,South,172,0.0,0.0,17,0.00,,,0.00,VWS V14.00,2013-04-16 14:20:00,
2013-04-16 09:21:00,75.0,27.3,25.72,SSE,167,0.0,0.0,17,0.00,,,0.00,VWS V14.00,2013-04-16 14:21:00,
2013-04-16 09:23:00,74.3,26.7,25.72,South,170,0.0,0.0,17,0.00,,,0.00,VWS V14.00,2013-04-16 14:23:00,
2013-04-16 09:25:00,74.7,27.0,25.72,SW,214,0.0,0.0,17,0.00,,,0.00,VWS V14.00,2013-04-16 14:25:00,
2013-04-16 09:26:00,75.6,27.7,25.72,SSW,195,0.0,0.0,17,0.00,,,0.00,VWS V14.00,2013-04-16 14:26:00,
2013-04-16 09:28:00,74.8,27.1,25.72,South,181,0.0,0.0,17,0.00,,,0.00,VWS V14.00,2013-04-16 14:28:00,
2013-04-16 09:30:00,73.8,26.3,25.72,SSW,193,0.0,0.0,17,0.00,,,0.00,VWS V14.00,2013-04-16 14:30:00,
2013-04-16 09:31:00,74.1,26.6,25.72,South,179,0.0,0.0,17,0.00,,,0.00,VWS V14.00,2013-04-16 14:31:00,
2013-04-16 09:32:00,73.8,26.3,25.72,South,189,0.0,0.0,17,0.00,,,0.00,VWS V14.00,2013-04-16 14:32:00,
2013-04-16 09:34:00,74.5,26.9,25.72,SSW,200,0.0,0.0,17,0.00,,,0.00,VWS V14.00,2013-04-16 14:34:00,
2013-04-16 09:35:00,74.1,26.6,25.72,South,189,0.0,0.0,17,0.00,,,0.00,VWS V14.00,2013-04-16 14:35:00,
2013-04-16 09:36:00,75.7,27.9,25.72,SSW,196,0.0,0.0,17,0.00,,,0.00,VWS V14.00,2013-04-16 14:36:00,
2013-04-16 09:37:00,75.2,27.4,25.72,South,185,0.0,0.0,17,0.00,,,0.00,VWS V14.00,2013-04-16 14:37:00,
2013-04-16 09:38:00,78.3,28.4,25.72,South,179,0.0,0.0,16,0.00,,,0.00,VWS V14.00,2013-04-16 14:38:00,
2013-04-16 09:39:00,79.5,27.9,25.72,SSE,160,4.0,7.6,15,0.00,,,0.00,VWS V14.00,2013-04-16 14:39:00,
2013-04-16 09:41:00,80.8,28.9,25.72,South,175,3.1,7.6,15,0.00,,,0.00,VWS V14.00,2013-04-16 14:41:00,
2013-04-16 09:43:00,79.3,27.7,25.72,SSE,163,6.3,8.3,15,0.00,,,0.00,VWS V14.00,2013-04-16 14:43:00,
2013-04-16 09:44:00,79.0,27.4,25.72,SSE,160,5.4,5.8,15,0.00,,,0.00,VWS V14.00,2013-04-16 14:44:00,
2013-04-16 09:46:00,77.2,27.6,25.72,South,179,6.3,6.3,16,0.00,,,0.00,VWS V14.00,2013-04-16 14:46:00,
2013-04-16 09:47:00,76.5,27.0,25.72,South,186,10.1,10.1,16,0.00,,,0.00,VWS V14.00,2013-04-16 14:47:00,
2013-04-16 09:48:00,78.8,27.3,25.72,South,188,4.9,10.1,15,0.00,,,0.00,VWS V14.00,2013-04-16 14:48:00,
2013-04-16 09:49:00,78.8,27.3,25.72,South,173,6.3,10.1,15,0.00,,,0.00,VWS V14.00,2013-04-16 14:49:00,
2013-04-16 09:51:00,79.2,27.6,25.72,SSW,211,6.3,10.1,15,0.00,,,0.00,VWS V14.00,2013-04-16 14:51:00,
2013-04-16 09:52:00,76.6,27.1,25.72,SSW,204,10.5,10.5,16,0.00,,,0.00,VWS V14.00,2013-04-16 14:52:00,
2013-04-16 09:54:00,76.3,26.8,25.72,SSW,198,4.0,12.3,16,0.00,,,0.00,VWS V14.00,2013-04-16 14:54:00,
2013-04-16 09:55:00,75.9,26.5,25.72,SSW,194,9.2,12.3,16,0.00,,,0.00,VWS V14.00,2013-04-16 14:55:00,
2013-04-16 09:57:00,78.1,28.3,25.72,SSE,157,5.4,12.3,16,0.00,,,0.00,VWS V14.00,2013-04-16 14:57:00,
2013-04-16 09:59:00,82.2,30.0,25.72,SSE,148,3.6,5.4,15,0.00,,,0.00,VWS V14.00,2013-04-16 14:59:00,
2013-04-16 10:00:00,82.0,29.9,25.72,SSE,160,10.1,10.1,15,0.00,,,0.00,VWS V14.00,2013-04-16 15:00:00,
2013-04-16 10:02:00,80.6,28.7,25.72,South,174,4.0,10.1,15,0.00,,,0.00,VWS V14.00,2013-04-16 15:02:00,
2013-04-16 10:03:00,80.6,28.7,25.72,South,186,4.0,10.1,15,0.00,,,0.00,VWS V14.00,2013-04-16 15:03:00,
2013-04-16 10:05:00,81.9,29.7,25.75,SSE,164,3.6,10.1,15,0.00,,,0.00,VWS V14.00,2013-04-16 15:05:00,
2013-04-16 10:07:00,81.5,29.4,25.75,ESE,123,4.0,10.1,15,0.00,,,0.00,VWS V14.00,2013-04-16 15:07:00,
2013-04-16 10:08:00,83.5,29.3,25.75,South,180,6.3,10.1,14,0.00,,,0.00,VWS V14.00,2013-04-16 15:08:00,
2013-04-16 10:10:00,80.4,28.6,25.75,South,169,8.3,12.8,15,0.00,,,0.00,VWS V14.00,2013-04-16 15:10:00,
2013-04-16 10:11:00,83.3,29.2,25.75,SE,143,3.1,12.8,14,0.00,,,0.00,VWS V14.00,2013-04-16 15:11:00,
2013-04-16 10:13:00,82.8,28.8,25.75,SSW,193,8.1,12.8,14,0.00,,,0.00,VWS V14.00,2013-04-16 15:13:00,
2013-04-16 10:14:00,81.7,29.6,25.75,South,189,8.1,8.1,15,0.00,,,0.00,VWS V14.00,2013-04-16 15:14:00,
2013-04-16 10:15:00,81.1,29.1,25.75,SW,225,7.6,8.1,15,0.00,,,0.00,VWS V14.00,2013-04-16 15:15:00,
2013-04-16 10:16:00,81.9,29.7,25.75,SSE,150,4.0,8.1,15,0.00,,,0.00,VWS V14.00,2013-04-16 15:16:00,
2013-04-16 10:19:00,77.2,27.6,25.75,South,176,8.3,10.1,16,0.00,,,0.00,VWS V14.00,2013-04-16 15:19:00,
2013-04-16 10:20:00,76.6,27.1,25.75,South,187,7.6,10.1,16,0.00,,,0.00,VWS V14.00,2013-04-16 15:20:00,
2013-04-16 10:22:00,76.6,27.1,25.75,SSW,200,5.4,10.1,16,0.00,,,0.00,VWS V14.00,2013-04-16 15:22:00,
2013-04-16 10:25:00,76.3,26.8,25.75,SSW,194,6.3,10.1,16,0.00,,,0.00,VWS V14.00,2013-04-16 15:25:00,
2013-04-16 10:26:00,76.1,26.7,25.75,South,181,5.8,10.1,16,0.00,,,0.00,VWS V14.00,2013-04-16 15:26:00,
2013-04-16 10:28:00,76.6,27.1,25.75,SSE,147,2.7,10.1,16,0.00,,,0.00,VWS V14.00,2013-04-16 15:28:00,
2013-04-16 10:31:00,77.5,27.9,25.75,South,173,10.1,10.1,16,0.00,,,0.00,VWS V14.00,2013-04-16 15:31:00,
2013-04-16 10:32:00,77.5,27.9,25.75,SSE,154,6.3,10.1,16,0.00,,,0.00,VWS V14.00,2013-04-16 15:32:00,
2013-04-16 10:33:00,77.7,28.0,25.75,South,170,5.4,10.1,16,0.00,,,0.00,VWS V14.00,2013-04-16 15:33:00,
2013-04-16 10:34:00,77.7,28.0,25.75,SE,141,8.3,10.1,16,0.00,,,0.00,VWS V14.00,2013-04-16 15:34:00,
2013-04-16 10:37:00,78.1,28.3,25.78,South,176,7.6,10.5,16,0.00,,,0.00,VWS V14.00,2013-04-16 15:37:00,
2013-04-16 10:38:00,77.9,28.1,25.78,South,178,7.6,10.5,16,0.00,,,0.00,VWS V14.00,2013-04-16 15:38:00,
2013-04-16 10:40:00,79.9,28.1,25.78,SSW,194,4.9,10.5,15,0.00,,,0.00,VWS V14.00,2013-04-16 15:40:00,
2013-04-16 10:41:00,80.4,28.6,25.78,South,181,4.0,10.5,15,0.00,,,0.00,VWS V14.00,2013-04-16 15:41:00,
2013-04-16 10:42:00,81.7,29.6,25.78,South,180,6.3,10.5,15,0.00,,,0.00,VWS V14.00,2013-04-16 15:42:00,
2013-04-16 10:43:00,81.9,29.7,25.78,SSE,165,4.0,10.5,15,0.00,,,0.00,VWS V14.00,2013-04-16 15:43:00,
2013-04-16 10:47:00,78.4,28.6,25.78,South,176,13.6,13.6,16,0.00,,,0.00,VWS V14.00,2013-04-16 15:47:00,
2013-04-16 10:48:00,78.1,28.3,25.78,South,184,5.8,13.6,16,0.00,,,0.00,VWS V14.00,2013-04-16 15:48:00,
2013-04-16 10:49:00,78.8,27.3,25.78,SSW,205,8.1,13.6,15,0.00,,,0.00,VWS V14.00,2013-04-16 15:49:00,
2013-04-16 10:52:00,79.9,28.1,25.78,SSE,153,8.3,13.6,15,0.00,,,0.00,VWS V14.00,2013-04-16 15:52:00,
2013-04-16 10:53:00,80.2,28.4,25.78,SSW,205,7.6,15.0,15,0.00,,,0.00,VWS V14.00,2013-04-16 15:53:00,
2013-04-16 10:54:00,80.8,28.9,25.78,South,172,8.1,15.0,15,0.00,,,0.00,VWS V14.00,2013-04-16 15:54:00,
2013-04-16 10:55:00,80.8,28.9,25.78,South,177,10.1,15.0,15,0.00,,,0.00,VWS V14.00,2013-04-16 15:55:00,
2013-04-16 10:57:00,81.3,29.3,25.78,South,173,10.1,15.0,15,0.00,,,0.00,VWS V14.00,2013-04-16 15:57:00,
2013-04-16 10:59:00,81.1,29.1,25.78,SSE,164,4.0,5.4,15,0.00,,,0.00,VWS V14.00,2013-04-16 15:59:00,
2013-04-16 11:00:00,81.1,29.1,25.78,SSE,153,4.0,7.6,15,0.00,,,0.00,VWS V14.00,2013-04-16 16:00:00,
2013-04-16 11:02:00,78.8,27.3,25.78,SSE,156,10.5,12.3,15,0.00,,,0.00,VWS V14.00,2013-04-16 16:02:00,
2013-04-16 11:04:00,78.1,28.3,25.78,SSE,165,6.3,12.3,16,0.00,,,0.00,VWS V14.00,2013-04-16 16:04:00,
2013-04-16 11:06:00,78.8,27.3,25.78,South,185,8.3,12.3,15,0.00,,,0.00,VWS V14.00,2013-04-16 16:06:00,
2013-04-16 11:07:00,78.4,28.6,25.78,SSE,152,8.3,12.3,16,0.00,,,0.00,VWS V14.00,2013-04-16 16:07:00,
2013-04-16 11:08:00,79.3,27.7,25.78,SSW,204,6.3,12.3,15,0.00,,,0.00,VWS V14.00,2013-04-16 16:08:00,
2013-04-16 11:10:00,78.8,27.3,25.78,South,180,3.6,12.3,15,0.00,,,0.00,VWS V14.00,2013-04-16 16:10:00,
2013-04-16 11:12:00,79.9,28.1,25.78,SSW,196,6.3,12.3,15,0.00,,,0.00,VWS V14.00,2013-04-16 16:12:00,
2013-04-16 11:13:00,79.7,28.0,25.78,South,190,7.6,12.3,15,0.00,,,0.00,VWS V14.00,2013-04-16 16:13:00,
2013-04-16 11:14:00,81.7,29.6,25.78,SSE,151,5.4,7.6,15,0.00,,,0.00,VWS V14.00,2013-04-16 16:14:00,
2013-04-16 11:15:00,81.9,29.7,25.78,South,189,7.2,10.1,15,0.00,,,0.00,VWS V14.00,2013-04-16 16:15:00,
2013-04-16 11:17:00,82.2,30.0,25.78,SW,218,10.1,10.1,15,0.00,,,0.00,VWS V14.00,2013-04-16 16:17:00,
2013-04-16 11:18:00,81.0,29.0,25.78,WSW,239,8.3,10.5,15,0.00,,,0.00,VWS V14.00,2013-04-16 16:18:00,
2013-04-16 11:19:00,81.9,29.7,25.78,SW,216,7.6,10.5,15,0.00,,,0.00,VWS V14.00,2013-04-16 16:19:00,
2013-04-16 11:23:00,81.5,29.4,25.78,SSE,152,4.9,10.5,15,0.00,,,0.00,VWS V14.00,2013-04-16 16:23:00,
2013-04-16 11:24:00,81.5,29.4,25.78,SSE,167,4.0,10.5,15,0.00,,,0.00,VWS V14.00,2013-04-16 16:24:00,
2013-04-16 11:26:00,80.2,28.4,25.78,South,189,2.7,10.5,15,0.00,,,0.00,VWS V14.00,2013-04-16 16:26:00,
2013-04-16 11:29:00,79.2,27.6,25.78,SSW,195,8.7,8.7,15,0.00,,,0.00,VWS V14.00,2013-04-16 16:29:00,
2013-04-16 11:30:00,79.2,27.6,25.78,South,191,8.1,8.7,15,0.00,,,0.00,VWS V14.00,2013-04-16 16:30:00,
2013-04-16 11:32:00,80.2,28.4,25.78,SSW,202,5.4,8.7,15,0.00,,,0.00,VWS V14.00,2013-04-16 16:32:00,
2013-04-16 11:33:00,81.1,29.1,25.78,SSE,165,5.4,8.7,15,0.00,,,0.00,VWS V14.00,2013-04-16 16:33:00,
2013-04-16 11:35:00,81.3,29.3,25.81,South,190,6.7,8.7,15,0.00,,,0.00,VWS V14.00,2013-04-16 16:35:00,
2013-04-16 11:37:00,84.7,30.3,25.81,SSE,157,4.0,10.1,14,0.00,,,0.00,VWS V14.00,2013-04-16 16:37:00,
2013-04-16 11:38:00,84.9,30.5,25.81,South,178,11.0,11.4,14,0.00,,,0.00,VWS V14.00,2013-04-16 16:38:00,
2013-04-16 11:40:00,87.3,32.3,25.81,South,178,5.4,11.4,14,0.00,,,0.00,VWS V14.00,2013-04-16 16:40:00,
2013-04-16 11:42:00,87.8,30.9,25.81,South,171,9.6,12.3,13,0.00,,,0.00,VWS V14.00,2013-04-16 16:42:00,
2013-04-16 11:45:00,85.6,31.0,25.81,SSW,213,5.4,13.2,14,0.00,,,0.00,VWS V14.00,2013-04-16 16:45:00,
2013-04-16 11:47:00,83.7,29.5,25.81,South,170,10.1,13.2,14,0.00,,,0.00,VWS V14.00,2013-04-16 16:47:00,
2013-04-16 11:48:00,83.7,29.5,25.81,South,170,10.1,13.2,14,0.00,,,0.00,VWS V14.00,2013-04-16 16:48:00,
2013-04-16 11:49:00,86.7,31.9,25.81,SSW,201,6.3,13.2,14,0.00,,,0.00,VWS V14.00,2013-04-16 16:49:00,
2013-04-16 11:50:00,87.4,32.4,25.81,SSE,147,8.7,13.2,14,0.00,,,0.00,VWS V14.00,2013-04-16 16:50:00,
2013-04-16 11:52:00,89.6,32.3,25.81,South,181,4.0,13.2,13,0.00,,,0.00,VWS V14.00,2013-04-16 16:52:00,
2013-04-16 11:53:00,88.3,31.3,25.81,SSW,192,7.6,13.2,13,0.00,,,0.00,VWS V14.00,2013-04-16 16:53:00,
2013-04-16 11:54:00,89.6,32.3,25.81,South,172,4.0,13.2,13,0.00,,,0.00,VWS V14.00,2013-04-16 16:54:00,
2013-04-16 11:56:00,89.6,32.3,25.81,SSE,166,3.1,13.2,13,0.00,,,0.00,VWS V14.00,2013-04-16 16:56:00,
2013-04-16 11:58:00,94.5,34.1,25.81,South,187,4.5,13.2,12,0.00,,,0.00,VWS V14.00,2013-04-16 16:58:00,
2013-04-16 11:59:00,94.5,34.1,25.81,South,169,5.4,5.8,12,0.00,,,0.00,VWS V14.00,2013-04-16 16:59:00,
2013-04-16 12:02:00,84.0,29.8,25.81,SSW,204,6.3,13.2,14,0.00,,,0.00,VWS V14.00,2013-04-16 17:02:00,
2013-04-16 12:04:00,84.4,30.0,25.81,South,178,6.3,13.2,14,0.00,,,0.00,VWS V14.00,2013-04-16 17:04:00,
2013-04-16 12:05:00,86.4,31.6,25.84,South,178,8.7,13.2,14,0.00,,,0.00,VWS V14.00,2013-04-16 17:05:00,
2013-04-16 12:08:00,87.8,30.9,25.84,SSE,167,6.3,13.2,13,0.00,,,0.00,VWS V14.00,2013-04-16 17:08:00,
2013-04-16 12:09:00,87.8,30.9,25.84,SE,137,6.3,13.2,13,0.00,,,0.00,VWS V14.00,2013-04-16 17:09:00,
2013-04-16 12:10:00,87.8,30.9,25.84,South,191,4.0,13.2,13,0.00,,,0.00,VWS V14.00,2013-04-16 17:10:00,
2013-04-16 12:11:00,86.7,31.9,25.84,South,183,5.8,13.2,14,0.00,,,0.00,VWS V14.00,2013-04-16 17:11:00,
2013-04-16 12:14:00,86.9,32.0,25.84,SSW,192,13.2,13.2,14,0.00,,,0.00,VWS V14.00,2013-04-16 17:14:00,
2013-04-16 12:15:00,86.9,32.0,25.84,SSW,204,7.6,13.2,14,0.00,,,0.00,VWS V14.00,2013-04-16 17:15:00,
2013-04-16 12:17:00,86.5,31.7,25.84,SSW,194,8.3,13.2,14,0.00,,,0.00,VWS V14.00,2013-04-16 17:17:00,
2013-04-16 12:20:00,90.5,33.0,25.84,South,181,8.1,13.2,13,0.00,,,0.00,VWS V14.00,2013-04-16 17:20:00,
2013-04-16 12:21:00,90.5,33.0,25.84,South,172,10.5,13.2,13,0.00,,,0.00,VWS V14.00,2013-04-16 17:21:00,
2013-04-16 12:22:00,87.4,32.4,25.84,SSE,161,5.8,13.2,14,0.00,,,0.00,VWS V14.00,2013-04-16 17:22:00,
2013-04-16 12:23:00,88.0,31.0,25.84,South,190,8.3,17.0,13,0.00,,,0.00,VWS V14.00,2013-04-16 17:23:00,
2013-04-16 12:24:00,88.2,31.2,25.84,SSE,164,9.6,17.0,13,0.00,,,0.00,VWS V14.00,2013-04-16 17:24:00,
2013-04-16 12:26:00,86.4,31.6,25.84,SSW,198,12.3,17.0,14,0.00,,,0.00,VWS V14.00,2013-04-16 17:26:00,
2013-04-16 12:27:00,86.4,31.6,25.84,SSW,209,8.7,17.0,14,0.00,,,0.00,VWS V14.00,2013-04-16 17:27:00,
2013-04-16 12:30:00,89.6,32.3,25.84,SW,219,3.1,12.8,13,0.00,,,0.00,VWS V14.00,2013-04-16 17:30:00,
2013-04-16 12:32:00,90.1,32.7,25.84,South,177,6.3,12.8,13,0.00,,,0.00,VWS V14.00,2013-04-16 17:32:00,
2013-04-16 12:33:00,90.1,32.7,25.84,SSE,163,5.8,12.8,13,0.00,,,0.00,VWS V14.00,2013-04-16 17:33:00,
2013-04-16 12:36:00,89.6,32.3,25.87,SSE,168,16.3,16.3,13,0.00,,,0.00,VWS V14.00,2013-04-16 17:36:00,
2013-04-16 12:37:00,87.1,32.2,25.87,South,177,11.0,16.3,14,0.00,,,0.00,VWS V14.00,2013-04-16 17:37:00,
2013-04-16 12:38:00,87.1,32.2,25.87,SSW,204,12.8,16.3,14,0.00,,,0.00,VWS V14.00,2013-04-16 17:38:00,
2013-04-16 12:41:00,88.2,31.2,25.87,South,189,6.3,16.3,13,0.00,,,0.00,VWS V14.00,2013-04-16 17:41:00,
2013-04-16 12:42:00,87.3,32.3,25.87,SSW,204,8.1,16.3,14,0.00,,,0.00,VWS V14.00,2013-04-16 17:42:00,
2013-04-16 12:43:00,87.3,32.3,25.87,South,181,8.3,16.3,14,0.00,,,0.00,VWS V14.00,2013-04-16 17:43:00,
2013-04-16 12:44:00,87.3,32.3,25.87,South,181,14.5,14.5,14,0.00,,,0.00,VWS V14.00,2013-04-16 17:44:00,
2013-04-16 12:47:00,87.3,32.3,25.87,South,178,8.3,14.5,14,0.00,,,0.00,VWS V14.00,2013-04-16 17:47:00,
2013-04-16 12:49:00,90.3,32.9,25.87,ESE,116,2.2,14.5,13,0.00,,,0.00,VWS V14.00,2013-04-16 17:49:00,
2013-04-16 12:53:00,89.6,32.3,25.87,South,178,6.3,14.5,13,0.00,,,0.00,VWS V14.00,2013-04-16 17:53:00,
2013-04-16 12:54:00,88.2,31.2,25.87,SSE,156,7.6,15.0,13,0.00,,,0.00,VWS V14.00,2013-04-16 17:54:00,
2013-04-16 12:55:00,90.5,33.0,25.87,SSE,151,5.8,15.0,13,0.00,,,0.00,VWS V14.00,2013-04-16 17:55:00,
2013-04-16 12:59:00,88.0,31.0,25.87,SSE,163,8.7,16.3,13,0.00,,,0.00,VWS V14.00,2013-04-16 17:59:00,
2013-04-16 13:00:00,87.1,32.2,25.87,SSE,161,10.5,16.3,14,0.00,,,0.00,VWS V14.00,2013-04-16 18:00:00,
2013-04-16 13:01:00,89.6,32.3,25.87,SSE,158,3.6,16.3,13,0.00,,,0.00,VWS V14.00,2013-04-16 18:01:00,
2013-04-16 13:05:00,90.7,33.1,25.87,SE,142,5.8,16.3,13,0.00,,,0.00,VWS V14.00,2013-04-16 18:05:00,
2013-04-16 13:06:00,90.7,33.1,25.87,South,181,6.3,16.3,13,0.00,,,0.00,VWS V14.00,2013-04-16 18:06:00,
2013-04-16 13:07:00,89.4,32.2,25.87,SSE,168,9.6,16.3,13,0.00,,,0.00,VWS V14.00,2013-04-16 18:07:00,
2013-04-16 13:08:00,90.7,33.1,25.87,South,189,2.7,16.3,13,0.00,,,0.00,VWS V14.00,2013-04-16 18:08:00,
2013-04-16 13:10:00,89.2,32.0,25.87,SSW,203,8.3,16.3,13,0.00,,,0.00,VWS V14.00,2013-04-16 18:10:00,
2013-04-16 13:11:00,89.2,32.0,25.87,SSW,193,19.7,19.7,13,0.00,,,0.00,VWS V14.00,2013-04-16 18:11:00,
2013-04-16 13:12:00,87.3,32.3,25.87,SSE,159,11.0,19.7,14,0.00,,,0.00,VWS V14.00,2013-04-16 18:12:00,
2013-04-16 13:13:00,87.3,32.3,25.87,SSE,152,5.8,6.3,14,0.00,,,0.00,VWS V14.00,2013-04-16 18:13:00,
2013-04-16 13:16:00,86.2,31.5,25.87,SSW,200,10.5,10.5,14,0.00,,,0.00,VWS V14.00,2013-04-16 18:16:00,
2013-04-16 13:17:00,86.9,32.0,25.87,SSE,167,8.7,10.5,14,0.00,,,0.00,VWS V14.00,2013-04-16 18:17:00,
2013-04-16 13:19:00,86.7,31.9,25.90,SSW,193,6.3,15.9,14,0.00,,,0.00,VWS V14.00,2013-04-16 18:19:00,
2013-04-16 13:21:00,87.3,32.3,25.90,South,177,6.3,15.9,14,0.00,,,0.00,VWS V14.00,2013-04-16 18:21:00,
2013-04-16 13:22:00,87.3,32.3,25.90,South,177,6.3,15.9,14,0.00,,,0.00,VWS V14.00,2013-04-16 18:22:00,
2013-04-16 13:23:00,87.6,32.6,25.90,SSE,160,5.4,15.9,14,0.00,,,0.00,VWS V14.00,2013-04-16 18:23:00,
2013-04-16 13:24:00,87.1,32.2,25.90,SSE,165,8.1,15.9,14,0.00,,,0.00,VWS V14.00,2013-04-16 18:24:00,
2013-04-16 13:26:00,88.0,31.0,25.90,South,185,5.8,15.9,13,0.00,,,0.00,VWS V14.00,2013-04-16 18:26:00,
2013-04-16 13:28:00,88.7,31.6,25.90,South,174,8.3,15.9,13,0.00,,,0.00,VWS V14.00,2013-04-16 18:28:00,
2013-04-16 13:29:00,87.8,30.9,25.90,SSW,201,10.5,13.6,13,0.00,,,0.00,VWS V14.00,2013-04-16 18:29:00,
2013-04-16 13:30:00,88.5,31.5,25.90,South,186,2.7,13.6,13,0.00,,,0.00,VWS V14.00,2013-04-16 18:30:00,
2013-04-16 13:33:00,89.4,32.2,25.90,South,183,13.2,13.6,13,0.00,,,0.00,VWS V14.00,2013-04-16 18:33:00,
2013-04-16 13:34:00,88.3,31.3,25.90,SSW,198,13.2,13.6,13,0.00,,,0.00,VWS V14.00,2013-04-16 18:34:00,
2013-04-16 13:35:00,88.3,31.3,25.90,South,175,6.7,13.6,13,0.00,,,0.00,VWS V14.00,2013-04-16 18:35:00,
2013-04-16 13:38:00,92.1,32.3,25.90,SSE,156,5.8,13.6,12,0.00,,,0.00,VWS V14.00,2013-04-16 18:38:00,
2013-04-16 13:39:00,92.1,32.3,25.90,South,178,8.7,13.6,12,0.00,,,0.00,VWS V14.00,2013-04-16 18:39:00,
2013-04-16 13:40:00,92.8,32.8,25.90,SE,125,4.9,13.6,12,0.00,,,0.00,VWS V14.00,2013-04-16 18:40:00,
2013-04-16 13:41:00,92.8,32.8,25.90,SSE,161,6.3,13.6,12,0.00,,,0.00,VWS V14.00,2013-04-16 18:41:00,
2013-04-16 13:45:00,93.0,33.0,25.90,South,186,6.3,12.8,12,0.00,,,0.00,VWS V14.00,2013-04-16 18:45:00,
2013-04-16 13:46:00,93.0,33.0,25.90,South,186,7.6,12.8,12,0.00,,,0.00,VWS V14.00,2013-04-16 18:46:00,
2013-04-16 13:47:00,91.2,33.6,25.90,South,182,7.6,12.8,13,0.00,,,0.00,VWS V14.00,2013-04-16 18:47:00,
2013-04-16 13:48:00,92.7,32.7,25.90,South,171,5.8,12.8,12,0.00,,,0.00,VWS V14.00,2013-04-16 18:48:00,
2013-04-16 13:51:00,91.0,33.4,25.90,SSW,202,8.7,12.8,13,0.00,,,0.00,VWS V14.00,2013-04-16 18:51:00,
2013-04-16 13:52:00,91.0,33.4,25.90,SSW,200,8.1,12.8,13,0.00,,,0.00,VWS V14.00,2013-04-16 18:52:00,
2013-04-16 13:53:00,89.8,32.4,25.90,South,174,10.5,12.8,13,0.00,,,0.00,VWS V14.00,2013-04-16 18:53:00,
2013-04-16 13:54:00,88.0,31.0,25.90,South,182,8.7,13.6,13,0.00,,,0.00,VWS V14.00,2013-04-16 18:54:00,
2013-04-16 13:56:00,88.5,31.5,25.90,South,181,6.3,13.6,13,0.00,,,0.00,VWS V14.00,2013-04-16 18:56:00,
2013-04-16 13:57:00,88.7,31.6,25.90,SSW,199,11.0,13.6,13,0.00,,,0.00,VWS V14.00,2013-04-16 18:57:00,
2013-04-16 13:58:00,88.5,31.5,25.90,South,191,17.4,21.0,13,0.00,,,0.00,VWS V14.00,2013-04-16 18:58:00,
2013-04-16 13:59:00,88.3,31.3,25.90,SSE,149,4.5,17.4,13,0.00,,,0.00,VWS V14.00,2013-04-16 18:59:00,
2013-04-16 14:00:00,88.9,31.7,25.90,South,175,6.3,17.4,13,0.00,,,0.00,VWS V14.00,2013-04-16 19:00:00,
2013-04-16 14:01:00,88.2,31.2,25.90,SW,217,13.2,17.4,13,0.00,,,0.00,VWS V14.00,2013-04-16 19:01:00,
2013-04-16 14:03:00,90.0,32.6,25.90,SSE,150,2.2,17.4,13,0.00,,,0.00,VWS V14.00,2013-04-16 19:03:00,
2013-04-16 14:04:00,90.0,32.6,25.90,South,181,11.9,17.4,13,0.00,,,0.00,VWS V14.00,2013-04-16 19:04:00,
2013-04-16 14:05:00,90.0,32.6,25.90,SSE,166,6.3,17.4,13,0.00,,,0.00,VWS V14.00,2013-04-16 19:05:00,
2013-04-16 14:06:00,89.6,32.3,25.90,South,180,5.4,17.4,13,0.00,,,0.00,VWS V14.00,2013-04-16 19:06:00,
2013-04-16 14:07:00,89.6,32.3,25.90,SSE,160,10.5,17.4,13,0.00,,,0.00,VWS V14.00,2013-04-16 19:07:00,
2013-04-16 14:09:00,89.8,32.4,25.90,South,181,3.6,17.4,13,0.00,,,0.00,VWS V14.00,2013-04-16 19:09:00,
2013-04-16 14:11:00,90.5,33.0,25.90,SSW,208,4.9,17.4,13,0.00,,,0.00,VWS V14.00,2013-04-16 19:11:00,
2013-04-16 14:12:00,90.7,33.1,25.90,SSE,158,7.6,17.4,13,0.00,,,0.00,VWS V14.00,2013-04-16 19:12:00,
2013-04-16 14:14:00,91.8,32.0,25.90,South,171,8.1,12.3,12,0.00,,,0.00,VWS V14.00,2013-04-16 19:14:00,
2013-04-16 14:17:00,91.8,32.0,25.90,South,175,5.8,12.3,12,0.00,,,0.00,VWS V14.00,2013-04-16 19:17:00,
2013-04-16 14:20:00,91.9,32.1,25.93,SSW,196,5.8,12.3,12,0.00,,,0.00,VWS V14.00,2013-04-16 19:20:00,
2013-04-16 14:22:00,93.0,33.0,25.93,SSW,192,3.1,12.3,12,0.00,,,0.00,VWS V14.00,2013-04-16 19:22:00,
2013-04-16 14:23:00,93.2,33.1,25.93,South,170,8.3,12.3,12,0.00,,,0.00,VWS V14.00,2013-04-16 19:23:00,
2013-04-16 14:27:00,91.8,32.0,25.93,SSE,150,9.6,12.3,12,0.00,,,0.00,VWS V14.00,2013-04-16 19:27:00,
2013-04-16 14:28:00,92.3,32.4,25.93,SSW,195,8.7,12.3,12,0.00,,,0.00,VWS V14.00,2013-04-16 19:28:00,
2013-04-16 14:29:00,92.8,32.8,25.93,South,183,8.1,8.1,12,0.00,,,0.00,VWS V14.00,2013-04-16 19:29:00,
2013-04-16 14:32:00,92.5,32.5,25.93,SSE,156,14.5,14.5,12,0.00,,,0.00,VWS V14.00,2013-04-16 19:32:00,
2013-04-16 14:33:00,90.0,32.6,25.93,SSW,195,15.9,15.9,13,0.00,,,0.00,VWS V14.00,2013-04-16 19:33:00,
2013-04-16 14:34:00,90.3,32.9,25.93,South,173,15.9,15.9,13,0.00,,,0.00,VWS V14.00,2013-04-16 19:34:00,
2013-04-16 14:37:00,91.6,31.9,25.93,SSE,162,8.7,15.9,12,0.00,,,0.00,VWS V14.00,2013-04-16 19:37:00,
2013-04-16 14:38:00,91.2,33.6,25.93,SSE,166,4.9,15.9,13,0.00,,,0.00,VWS V14.00,2013-04-16 19:38:00,
2013-04-16 14:39:00,92.3,32.4,25.93,SSW,192,8.1,15.9,12,0.00,,,0.00,VWS V14.00,2013-04-16 19:39:00,
2013-04-16 14:40:00,91.8,32.0,25.93,South,187,11.0,15.9,12,0.00,,,0.00,VWS V14.00,2013-04-16 19:40:00,
2013-04-16 14:44:00,92.1,32.3,25.93,South,179,8.7,10.1,12,0.00,,,0.00,VWS V14.00,2013-04-16 19:44:00,
2013-04-16 14:45:00,92.1,32.3,25.93,South,189,5.4,10.1,12,0.00,,,0.00,VWS V14.00,2013-04-16 19:45:00,
2013-04-16 14:46:00,93.2,33.1,25.93,South,173,5.4,10.1,12,0.00,,,0.00,VWS V14.00,2013-04-16 19:46:00,
2013-04-16 14:49:00,91.6,31.9,25.96,SSE,154,11.0,13.6,12,0.00,,,0.00,VWS V14.00,2013-04-16 19:49:00,
2013-04-16 14:50:00,93.4,33.2,25.96,South,185,5.4,13.6,12,0.00,,,0.00,VWS V14.00,2013-04-16 19:50:00,
2013-04-16 14:51:00,93.6,33.4,25.96,South,170,4.0,13.6,12,0.00,,,0.00,VWS V14.00,2013-04-16 19:51:00,
2013-04-16 14:52:00,93.7,33.5,25.96,SSW,197,5.4,13.6,12,0.00,,,0.00,VWS V14.00,2013-04-16 19:52:00,
2013-04-16 14:53:00,92.7,32.7,25.96,South,174,11.0,13.6,12,0.00,,,0.00,VWS V14.00,2013-04-16 19:53:00,
2013-04-16 14:55:00,92.7,32.7,25.96,South,172,4.9,13.6,12,0.00,,,0.00,VWS V14.00,2013-04-16 19:55:00,
2013-04-16 14:56:00,93.6,33.4,25.96,South,172,4.0,13.6,12,0.00,,,0.00,VWS V14.00,2013-04-16 19:56:00,
2013-04-16 14:57:00,94.1,33.8,25.96,SSW,197,5.8,13.6,12,0.00,,,0.00,VWS V14.00,2013-04-16 19:57:00,
2013-04-16 14:59:00,92.7,32.7,25.96,South,184,8.7,12.8,12,0.00,,,0.00,VWS V14.00,2013-04-16 19:59:00,
2013-04-16 15:01:00,91.9,32.1,25.96,SSE,152,15.0,15.0,12,0.00,,,0.00,VWS V14.00,2013-04-16 20:01:00,
2013-04-16 15:02:00,92.1,32.3,25.96,SSW,203,8.7,15.0,12,0.00,,,0.00,VWS V14.00,2013-04-16 20:02:00,
2013-04-16 15:03:00,92.5,32.5,25.96,SSW,195,10.1,15.0,12,0.00,,,0.00,VWS V14.00,2013-04-16 20:03:00,
2013-04-16 15:04:00,91.8,32.0,25.96,South,179,4.9,15.0,12,0.00,,,0.00,VWS V14.00,2013-04-16 20:04:00,
2013-04-16 15:07:00,90.0,32.6,25.96,SSW,204,14.5,15.0,13,0.00,,,0.00,VWS V14.00,2013-04-16 20:07:00,
2013-04-16 15:08:00,92.3,32.4,25.96,SSE,165,3.1,15.0,12,0.00,,,0.00,VWS V14.00,2013-04-16 20:08:00,
2013-04-16 15:10:00,93.4,33.2,25.96,South,178,8.1,15.0,12,0.00,,,0.00,VWS V14.00,2013-04-16 20:10:00,
2013-04-16 15:12:00,93.7,33.5,25.96,SE,139,5.8,15.0,12,0.00,,,0.00,VWS V14.00,2013-04-16 20:12:00,
2013-04-16 15:13:00,93.7,33.5,25.96,East,87,4.0,15.0,12,0.00,,,0.00,VWS V14.00,2013-04-16 20:13:00,
2013-04-16 15:14:00,93.9,33.7,25.96,ESE,114,8.1,8.3,12,0.00,,,0.00,VWS V14.00,2013-04-16 20:14:00,
2013-04-16 15:17:00,94.8,34.3,25.96,SSW,207,6.3,8.7,12,0.00,,,0.00,VWS V14.00,2013-04-16 20:17:00,
2013-04-16 15:18:00,93.0,33.0,25.96,South,188,10.5,13.2,12,0.00,,,0.00,VWS V14.00,2013-04-16 20:18:00,
2013-04-16 15:19:00,94.5,34.1,25.96,South,170,6.3,13.2,12,0.00,,,0.00,VWS V14.00,2013-04-16 20:19:00,
2013-04-16 15:22:00,94.1,33.8,25.96,SSE,154,5.4,13.2,12,0.00,,,0.00,VWS V14.00,2013-04-16 20:22:00,
2013-04-16 15:23:00,94.1,33.8,25.96,South,186,15.0,15.0,12,0.00,,,0.00,VWS V14.00,2013-04-16 20:23:00,
2013-04-16 15:24:00,94.3,33.9,25.96,SE,140,8.3,15.0,12,0.00,,,0.00,VWS V14.00,2013-04-16 20:24:00,
2013-04-16 15:26:00,94.3,33.9,25.96,SE,130,4.0,15.0,12,0.00,,,0.00,VWS V14.00,2013-04-16 20:26:00,
2013-04-16 15:28:00,95.4,34.8,25.96,South,172,3.6,15.0,12,0.00,,,0.00,VWS V14.00,2013-04-16 20:28:00,
2013-04-16 15:31:00,96.8,33.7,25.96,South,183,3.6,8.7,11,0.00,,,0.00,VWS V14.00,2013-04-16 20:31:00,
2013-04-16 15:32:00,97.0,33.8,25.96,SE,125,3.1,8.7,11,0.00,,,0.00,VWS V14.00,2013-04-16 20:32:00,
2013-04-16 15:33:00,96.1,35.3,25.96,South,174,5.4,8.7,12,0.00,,,0.00,VWS V14.00,2013-04-16 20:33:00,
2013-04-16 15:36:00,93.0,33.0,25.96,South,189,10.5,13.2,12,0.00,,,0.00,VWS V14.00,2013-04-16 20:36:00,
2013-04-16 15:37:00,92.7,32.7,25.96,South,183,7.6,13.2,12,0.00,,,0.00,VWS V14.00,2013-04-16 20:37:00,
2013-04-16 15:38:00,92.8,32.8,25.96,SSE,162,8.1,13.2,12,0.00,,,0.00,VWS V14.00,2013-04-16 20:38:00,
2013-04-16 15:39:00,92.8,32.8,25.96,South,173,7.6,13.2,12,0.00,,,0.00,VWS V14.00,2013-04-16 20:39:00,
2013-04-16 15:41:00,92.5,32.5,25.96,SSE,153,5.8,13.2,12,0.00,,,0.00,VWS V14.00,2013-04-16 20:41:00,
2013-04-16 15:44:00,93.4,33.2,25.96,South,169,5.4,10.5,12,0.00,,,0.00,VWS V14.00,2013-04-16 20:44:00,
2013-04-16 15:45:00,93.7,33.5,25.96,South,183,8.7,10.5,12,0.00,,,0.00,VWS V14.00,2013-04-16 20:45:00,
2013-04-16 15:46:00,94.5,34.1,25.96,SSW,192,8.1,10.5,12,0.00,,,0.00,VWS V14.00,2013-04-16 20:46:00,
2013-04-16 15:47:00,93.6,33.4,25.96,SE,143,5.8,11.9,12,0.00,,,0.00,VWS V14.00,2013-04-16 20:47:00,
2013-04-16 15:49:00,94.6,34.2,25.96,South,172,5.4,11.9,12,0.00,,,0.00,VWS V14.00,2013-04-16 20:49:00,
2013-04-16 15:50:00,94.8,34.3,25.96,SSE,148,10.5,11.9,12,0.00,,,0.00,VWS V14.00,2013-04-16 20:50:00,
2013-04-16 15:52:00,95.4,34.8,25.96,South,172,3.6,11.9,12,0.00,,,0.00,VWS V14.00,2013-04-16 20:52:00,
2013-04-16 15:53:00,95.0,34.5,25.96,SSE,155,5.4,11.9,12,0.00,,,0.00,VWS V14.00,2013-04-16 20:53:00,
2013-04-16 15:55:00,94.5,34.1,25.96,South,177,8.1,11.9,12,0.00,,,0.00,VWS V14.00,2013-04-16 20:55:00,
2013-04-16 15:57:00,93.4,33.2,25.96,SSE,156,5.4,17.4,12,0.00,,,0.00,VWS V14.00,2013-04-16 20:57:00,
2013-04-16 15:58:00,93.9,33.7,25.96,SSE,149,8.3,11.0,12,0.00,,,0.00,VWS V14.00,2013-04-16 20:58:00,
2013-04-16 15:59:00,93.4,33.2,25.96,South,179,8.7,11.0,12,0.00,,,0.00,VWS V14.00,2013-04-16 20:59:00,
2013-04-16 16:02:00,93.0,33.0,25.96,SSE,163,10.5,12.8,12,0.00,,,0.00,VWS V14.00,2013-04-16 21:02:00,
2013-04-16 16:03:00,93.0,33.0,25.96,SSE,164,5.8,12.8,12,0.00,,,0.00,VWS V14.00,2013-04-16 21:03:00,
2013-04-16 16:04:00,93.4,33.2,25.96,SE,142,6.3,12.8,12,0.00,,,0.00,VWS V14.00,2013-04-16 21:04:00,
2013-04-16 16:08:00,92.1,32.3,25.96,South,175,11.0,17.4,12,0.00,,,0.00,VWS V14.00,2013-04-16 21:08:00,
2013-04-16 16:09:00,92.3,32.4,25.96,SSE,160,7.6,17.4,12,0.00,,,0.00,VWS V14.00,2013-04-16 21:09:00,
2013-04-16 16:10:00,92.3,32.4,25.96,South,187,9.6,17.4,12,0.00,,,0.00,VWS V14.00,2013-04-16 21:10:00,
2013-04-16 16:13:00,91.9,32.1,25.96,SSE,168,8.3,17.4,12,0.00,,,0.00,VWS V14.00,2013-04-16 21:13:00,
2013-04-16 16:15:00,91.9,32.1,25.96,South,183,7.6,13.2,12,0.00,,,0.00,VWS V14.00,2013-04-16 21:15:00,
2013-04-16 16:16:00,91.9,32.1,25.96,SE,142,5.8,13.2,12,0.00,,,0.00,VWS V14.00,2013-04-16 21:16:00,
2013-04-16 16:18:00,90.7,33.1,25.96,South,178,8.3,15.0,13,0.00,,,0.00,VWS V14.00,2013-04-16 21:18:00,
2013-04-16 16:19:00,91.4,31.7,25.99,SSW,199,8.3,15.0,12,0.00,,,0.00,VWS V14.00,2013-04-16 21:19:00,
2013-04-16 16:22:00,91.2,33.6,25.99,South,177,10.5,15.0,13,0.00,,,0.00,VWS V14.00,2013-04-16 21:22:00,
2013-04-16 16:24:00,93.0,33.0,25.99,SSE,161,8.7,15.0,12,0.00,,,0.00,VWS V14.00,2013-04-16 21:24:00,
2013-04-16 16:25:00,92.8,32.8,25.99,SSE,156,5.4,15.0,12,0.00,,,0.00,VWS V14.00,2013-04-16 21:25:00,
2013-04-16 16:27:00,92.7,32.7,25.99,East,96,5.4,15.0,12,0.00,,,0.00,VWS V14.00,2013-04-16 21:27:00,
2013-04-16 16:28:00,91.9,32.1,25.99,SSE,168,5.4,8.1,12,0.00,,,0.00,VWS V14.00,2013-04-16 21:28:00,
2013-04-16 16:29:00,93.0,33.0,25.99,South,179,3.1,8.1,12,0.00,,,0.00,VWS V14.00,2013-04-16 21:29:00,
2013-04-16 16:30:00,93.4,33.2,25.99,SSE,149,12.8,12.8,12,0.00,,,0.00,VWS V14.00,2013-04-16 21:30:00,
2013-04-16 16:32:00,92.3,32.4,25.99,SSW,196,10.1,13.6,12,0.00,,,0.00,VWS V14.00,2013-04-16 21:32:00,
2013-04-16 16:33:00,92.5,32.5,25.99,South,176,8.3,13.6,12,0.00,,,0.00,VWS V14.00,2013-04-16 21:33:00,
2013-04-16 16:34:00,92.5,32.5,25.96,South,178,8.3,13.6,12,0.00,,,0.00,VWS V14.00,2013-04-16 21:34:00,
2013-04-16 16:36:00,91.4,31.7,25.96,South,178,10.1,13.6,12,0.00,,,0.00,VWS V14.00,2013-04-16 21:36:00,
2013-04-16 16:39:00,92.8,32.8,25.96,SSW,196,5.8,13.6,12,0.00,,,0.00,VWS V14.00,2013-04-16 21:39:00,
2013-04-16 16:40:00,92.8,32.8,25.96,South,183,12.8,13.6,12,0.00,,,0.00,VWS V14.00,2013-04-16 21:40:00,
2013-04-16 16:41:00,93.2,33.1,25.96,SSW,196,8.7,13.6,12,0.00,,,0.00,VWS V14.00,2013-04-16 21:41:00,
2013-04-16 16:42:00,92.5,32.5,25.96,East,101,12.3,13.6,12,0.00,,,0.00,VWS V14.00,2013-04-16 21:42:00,
2013-04-16 16:45:00,90.9,33.3,25.96,SSE,165,9.2,17.0,13,0.00,,,0.00,VWS V14.00,2013-04-16 21:45:00,
2013-04-16 16:46:00,92.5,32.5,25.96,SSW,196,10.1,17.0,12,0.00,,,0.00,VWS V14.00,2013-04-16 21:46:00,
2013-04-16 16:47:00,92.7,32.7,25.96,South,173,6.3,17.0,12,0.00,,,0.00,VWS V14.00,2013-04-16 21:47:00,
2013-04-16 16:50:00,91.9,32.1,25.96,SSW,203,4.9,17.0,12,0.00,,,0.00,VWS V14.00,2013-04-16 21:50:00,
2013-04-16 16:51:00,92.8,32.8,25.96,SSW,204,5.4,17.0,12,0.00,,,0.00,VWS V14.00,2013-04-16 21:51:00,
2013-04-16 16:53:00,91.4,31.7,25.96,SSE,163,14.5,17.0,12,0.00,,,0.00,VWS V14.00,2013-04-16 21:53:00,
2013-04-16 16:54:00,90.5,33.0,25.96,SSE,153,8.1,19.7,13,0.00,,,0.00,VWS V14.00,2013-04-16 21:54:00,
2013-04-16 16:56:00,90.0,32.6,25.96,SSE,164,12.8,19.7,13,0.00,,,0.00,VWS V14.00,2013-04-16 21:56:00,
2013-04-16 16:57:00,91.6,31.9,25.96,SW,218,8.3,19.7,12,0.00,,,0.00,VWS V14.00,2013-04-16 21:57:00,
2013-04-16 16:58:00,91.8,32.0,25.96,South,171,7.6,19.7,12,0.00,,,0.00,VWS V14.00,2013-04-16 21:58:00,
2013-04-16 17:00:00,91.4,31.7,25.96,SE,146,10.1,13.6,12,0.00,,,0.00,VWS V14.00,2013-04-16 22:00:00,
2013-04-16 17:02:00,91.8,32.0,25.96,South,189,8.1,13.6,12,0.00,,,0.00,VWS V14.00,2013-04-16 22:02:00,
2013-04-16 17:03:00,91.8,32.0,25.96,SE,132,4.9,13.6,12,0.00,,,0.00,VWS V14.00,2013-04-16 22:03:00,
2013-04-16 17:04:00,92.3,32.4,25.96,SSE,164,5.4,13.6,12,0.00,,,0.00,VWS V14.00,2013-04-16 22:04:00,
2013-04-16 17:05:00,92.3,32.4,25.96,South,178,6.3,13.6,12,0.00,,,0.00,VWS V14.00,2013-04-16 22:05:00,
2013-04-16 17:09:00,92.3,32.4,25.96,SSE,160,3.6,17.0,12,0.00,,,0.00,VWS V14.00,2013-04-16 22:09:00,
2013-04-16 17:10:00,92.1,32.3,25.96,SSE,164,5.8,17.0,12,0.00,,,0.00,VWS V14.00,2013-04-16 22:10:00,
2013-04-16 17:11:00,91.9,32.1,25.96,SSW,203,5.8,17.0,12,0.00,,,0.00,VWS V14.00,2013-04-16 22:11:00,
2013-04-16 17:14:00,90.9,33.3,25.96,South,179,10.1,15.0,13,0.00,,,0.00,VWS V14.00,2013-04-16 22:14:00,
2013-04-16 17:16:00,91.2,33.6,25.96,SSE,158,5.4,15.0,13,0.00,,,0.00,VWS V14.00,2013-04-16 22:16:00,
2013-04-16 17:17:00,89.2,32.0,25.96,South,171,15.0,15.4,13,0.00,,,0.00,VWS V14.00,2013-04-16 22:17:00,
2013-04-16 17:19:00,88.9,31.7,25.99,South,171,8.1,15.4,13,0.00,,,0.00,VWS V14.00,2013-04-16 22:19:00,
2013-04-16 17:22:00,90.1,32.7,25.99,SE,139,5.8,15.4,13,0.00,,,0.00,VWS V14.00,2013-04-16 22:22:00,
2013-04-16 17:23:00,90.1,32.7,25.99,South,178,5.8,15.4,13,0.00,,,0.00,VWS V14.00,2013-04-16 22:23:00,
2013-04-16 17:25:00,89.6,32.3,25.99,SE,142,5.4,15.4,13,0.00,,,0.00,VWS V14.00,2013-04-16 22:25:00,
2013-04-16 17:27:00,88.7,31.6,25.99,SSE,150,4.0,15.4,13,0.00,,,0.00,VWS V14.00,2013-04-16 22:27:00,
2013-04-16 17:28:00,90.0,32.6,25.99,SSE,152,5.8,15.4,13,0.00,,,0.00,VWS V14.00,2013-04-16 22:28:00,
2013-04-16 17:29:00,89.4,32.2,25.99,SE,128,5.4,8.7,13,0.00,,,0.00,VWS V14.00,2013-04-16 22:29:00,
2013-04-16 17:31:00,88.9,31.7,25.99,SSE,157,6.3,13.2,13,0.00,,,0.00,VWS V14.00,2013-04-16 22:31:00,
2013-04-16 17:33:00,88.3,31.3,25.99,SE,140,11.0,15.9,13,0.00,,,0.00,VWS V14.00,2013-04-16 22:33:00,
2013-04-16 17:34:00,88.5,31.5,25.96,South,184,11.0,17.4,13,0.00,,,0.00,VWS V14.00,2013-04-16 22:34:00,
2013-04-16 17:35:00,88.0,31.0,25.96,SSE,162,5.4,17.4,13,0.00,,,0.00,VWS V14.00,2013-04-16 22:35:00,
2013-04-16 17:37:00,88.3,31.3,25.96,SSE,164,12.8,17.4,13,0.00,,,0.00,VWS V14.00,2013-04-16 22:37:00,
2013-04-16 17:38:00,88.2,31.2,25.96,South,186,12.3,17.4,13,0.00,,,0.00,VWS V14.00,2013-04-16 22:38:00,
2013-04-16 17:39:00,88.2,31.2,25.96,South,169,9.6,17.4,13,0.00,,,0.00,VWS V14.00,2013-04-16 22:39:00,
2013-04-16 17:40:00,87.1,32.2,25.96,SSW,199,12.8,17.4,14,0.00,,,0.00,VWS V14.00,2013-04-16 22:40:00,
2013-04-16 17:41:00,87.8,30.9,25.96,SE,138,12.8,17.4,13,0.00,,,0.00,VWS V14.00,2013-04-16 22:41:00,
2013-04-16 17:43:00,86.9,32.0,25.96,SSE,149,8.7,17.4,14,0.00,,,0.00,VWS V14.00,2013-04-16 22:43:00,
2013-04-16 17:45:00,86.5,31.7,25.96,SSE,160,8.1,10.5,14,0.00,,,0.00,VWS V14.00,2013-04-16 22:45:00,
2013-04-16 17:46:00,86.7,31.9,25.96,SSE,155,7.2,11.9,14,0.00,,,0.00,VWS V14.00,2013-04-16 22:46:00,
2013-04-16 17:47:00,87.1,32.2,25.96,SSE,160,6.3,11.9,14,0.00,,,0.00,VWS V14.00,2013-04-16 22:47:00,
2013-04-16 17:48:00,87.3,32.3,25.96,South,182,4.0,11.9,14,0.00,,,0.00,VWS V14.00,2013-04-16 22:48:00,
2013-04-16 17:50:00,87.1,32.2,25.99,SSE,152,8.3,17.0,14,0.00,,,0.00,VWS V14.00,2013-04-16 22:50:00,
2013-04-16 17:52:00,88.0,31.0,25.99,SE,130,5.8,17.0,13,0.00,,,0.00,VWS V14.00,2013-04-16 22:52:00,
2013-04-16 17:53:00,87.8,30.9,25.99,SSE,150,5.4,17.0,13,0.00,,,0.00,VWS V14.00,2013-04-16 22:53:00,
2013-04-16 17:55:00,88.0,31.0,25.99,SE,143,4.9,17.0,13,0.00,,,0.00,VWS V14.00,2013-04-16 22:55:00,
2013-04-16 17:58:00,87.6,32.6,25.99,South,187,4.0,17.0,14,0.00,,,0.00,VWS V14.00,2013-04-16 22:58:00,
2013-04-16 18:01:00,87.6,32.6,25.99,South,191,7.6,11.9,14,0.00,,,0.00,VWS V14.00,2013-04-16 23:01:00,
2013-04-16 18:03:00,87.8,30.9,25.99,South,176,4.0,11.9,13,0.00,,,0.00,VWS V14.00,2013-04-16 23:03:00,
2013-04-16 18:06:00,87.6,32.6,25.96,SE,134,8.7,11.9,14,0.00,,,0.00,VWS V14.00,2013-04-16 23:06:00,
2013-04-16 18:07:00,87.1,32.2,25.96,SSE,168,6.3,11.9,14,0.00,,,0.00,VWS V14.00,2013-04-16 23:07:00,
2013-04-16 18:08:00,87.1,32.2,25.96,South,177,8.7,11.9,14,0.00,,,0.00,VWS V14.00,2013-04-16 23:08:00,
2013-04-16 18:09:00,87.1,32.2,25.96,SE,140,6.7,11.9,14,0.00,,,0.00,VWS V14.00,2013-04-16 23:09:00,
2013-04-16 18:12:00,87.1,32.2,25.96,South,171,5.4,15.0,14,0.00,,,0.00,VWS V14.00,2013-04-16 23:12:00,
2013-04-16 18:13:00,87.6,32.6,25.96,SSW,194,5.4,5.4,14,0.00,,,0.00,VWS V14.00,2013-04-16 23:13:00,
2013-04-16 18:14:00,87.4,32.4,25.96,SE,136,9.6,13.2,14,0.00,,,0.00,VWS V14.00,2013-04-16 23:14:00,
2013-04-16 18:15:00,87.1,32.2,25.96,South,170,7.6,13.2,14,0.00,,,0.00,VWS V14.00,2013-04-16 23:15:00,
2013-04-16 18:18:00,87.6,32.6,25.96,South,177,5.8,13.2,14,0.00,,,0.00,VWS V14.00,2013-04-16 23:18:00,
2013-04-16 18:20:00,87.1,32.2,25.96,SE,146,5.8,14.1,14,0.00,,,0.00,VWS V14.00,2013-04-16 23:20:00,
2013-04-16 18:22:00,87.3,32.3,25.96,South,181,8.7,14.1,14,0.00,,,0.00,VWS V14.00,2013-04-16 23:22:00,
2013-04-16 18:23:00,86.7,31.9,25.96,SE,145,7.6,14.5,14,0.00,,,0.00,VWS V14.00,2013-04-16 23:23:00,
2013-04-16 18:24:00,86.4,31.6,25.96,SSE,158,8.7,17.4,14,0.00,,,0.00,VWS V14.00,2013-04-16 23:24:00,
2013-04-16 18:25:00,86.4,31.6,25.96,South,186,7.6,17.4,14,0.00,,,0.00,VWS V14.00,2013-04-16 23:25:00,
2013-04-16 18:27:00,86.9,32.0,25.96,SSE,165,6.3,17.4,14,0.00,,,0.00,VWS V14.00,2013-04-16 23:27:00,
2013-04-16 18:28:00,87.1,32.2,25.96,SE,133,5.8,5.8,14,0.00,,,0.00,VWS V14.00,2013-04-16 23:28:00,
2013-04-16 18:30:00,86.7,31.9,25.96,South,172,3.6,10.5,14,0.00,,,0.00,VWS V14.00,2013-04-16 23:30:00,
2013-04-16 18:32:00,86.7,31.9,25.96,SE,143,3.1,10.5,14,0.00,,,0.00,VWS V14.00,2013-04-16 23:32:00,
2013-04-16 18:33:00,86.2,31.5,25.96,SSW,209,6.3,10.5,14,0.00,,,0.00,VWS V14.00,2013-04-16 23:33:00,
2013-04-16 18:34:00,85.5,30.9,25.96,SSE,159,6.3,10.5,14,0.00,,,0.00,VWS V14.00,2013-04-16 23:34:00,
2013-04-16 18:36:00,84.9,30.5,25.96,SSE,151,5.8,10.5,14,0.00,,,0.00,VWS V14.00,2013-04-16 23:36:00,
2013-04-16 18:37:00,84.6,30.2,25.96,South,170,6.3,10.5,14,0.00,,,0.00,VWS V14.00,2013-04-16 23:37:00,
2013-04-16 18:38:00,84.6,30.2,25.96,South,189,5.4,10.5,14,0.00,,,0.00,VWS V14.00,2013-04-16 23:38:00,
2013-04-16 18:39:00,84.6,30.2,25.96,South,186,5.4,10.5,14,0.00,,,0.00,VWS V14.00,2013-04-16 23:39:00,
2013-04-16 18:41:00,84.2,29.9,25.96,South,173,7.6,10.5,14,0.00,,,0.00,VWS V14.00,2013-04-16 23:41:00,
2013-04-16 18:42:00,84.2,29.9,25.96,SSE,149,7.6,10.5,14,0.00,,,0.00,VWS V14.00,2013-04-16 23:42:00,
2013-04-16 18:43:00,84.4,30.0,25.96,South,177,8.1,8.1,14,0.00,,,0.00,VWS V14.00,2013-04-16 23:43:00,
2013-04-16 18:44:00,84.2,29.9,25.96,South,176,10.1,12.8,14,0.00,,,0.00,VWS V14.00,2013-04-16 23:44:00,
2013-04-16 18:45:00,84.2,29.9,25.96,SE,145,7.2,12.8,14,0.00,,,0.00,VWS V14.00,2013-04-16 23:45:00,
2013-04-16 18:47:00,84.4,30.0,25.96,South,181,3.6,12.8,14,0.00,,,0.00,VWS V14.00,2013-04-16 23:47:00,
2013-04-16 18:49:00,84.4,30.0,25.96,South,187,6.3,12.8,14,0.00,,,0.00,VWS V14.00,2013-04-16 23:49:00,
2013-04-16 18:50:00,84.2,29.9,25.96,South,169,5.8,12.8,14,0.00,,,0.00,VWS V14.00,2013-04-16 23:50:00,
2013-04-16 18:52:00,84.0,29.8,25.96,South,181,5.8,12.8,14,0.00,,,0.00,VWS V14.00,2013-04-16 23:52:00,
2013-04-16 18:54:00,84.0,29.8,25.96,South,185,6.7,12.8,14,0.00,,,0.00,VWS V14.00,2013-04-16 23:54:00,
2013-04-16 18:55:00,84.0,29.8,25.96,SSE,156,3.6,12.8,14,0.00,,,0.00,VWS V14.00,2013-04-16 23:55:00,
2013-04-16 18:56:00,84.0,29.8,25.96,SSE,156,5.8,12.8,14,0.00,,,0.00,VWS V14.00,2013-04-16 23:56:00,
2013-04-16 18:58:00,84.0,29.8,25.96,ESE,111,2.7,4.0,14,0.00,,,0.00,VWS V14.00,2013-04-16 23:58:00,
2013-04-16 18:59:00,83.8,29.6,25.96,SSW,198,3.1,4.9,14,0.00,,,0.00,VWS V14.00,2013-04-16 23:59:00,
2013-04-16 19:00:00,83.8,29.6,25.96,South,182,5.8,5.8,14,0.00,,,0.00,VWS V14.00,2013-04-17 00:00:00,
2013-04-16 19:01:00,83.7,29.5,25.96,SSE,156,4.9,6.3,14,0.00,,,0.00,VWS V14.00,2013-04-17 00:01:00,
2013-04-16 19:03:00,83.5,29.3,25.96,SSW,199,5.4,8.3,14,0.00,,,0.00,VWS V14.00,2013-04-17 00:03:00,
2013-04-16 19:04:00,83.3,29.2,25.96,South,173,11.0,11.0,14,0.00,,,0.00,VWS V14.00,2013-04-17 00:04:00,
2013-04-16 19:05:00,83.3,29.2,25.96,SE,145,6.3,11.0,14,0.00,,,0.00,VWS V14.00,2013-04-17 00:05:00,
2013-04-16 19:06:00,83.3,29.2,25.96,SE,145,6.3,11.0,14,0.00,,,0.00,VWS V14.00,2013-04-17 00:06:00,
2013-04-16 19:07:00,83.3,29.2,25.96,SSE,152,7.6,11.0,14,0.00,,,0.00,VWS V14.00,2013-04-17 00:07:00,
2013-04-16 19:09:00,83.3,29.2,25.96,South,172,4.0,11.0,14,0.00,,,0.00,VWS V14.00,2013-04-17 00:09:00,
2013-04-16 19:11:00,83.1,29.0,25.96,South,173,4.0,11.0,14,0.00,,,0.00,VWS V14.00,2013-04-17 00:11:00,
2013-04-16 19:12:00,83.1,29.0,25.96,South,181,7.6,11.0,14,0.00,,,0.00,VWS V14.00,2013-04-17 00:12:00,
2013-04-16 19:15:00,83.3,29.2,25.96,SSW,200,6.3,10.5,14,0.00,,,0.00,VWS V14.00,2013-04-17 00:15:00,
2013-04-16 19:16:00,83.3,29.2,25.96,South,169,10.1,10.5,14,0.00,,,0.00,VWS V14.00,2013-04-17 00:16:00,
2013-04-16 19:17:00,83.3,29.2,25.96,SE,127,5.4,10.5,14,0.00,,,0.00,VWS V14.00,2013-04-17 00:17:00,
2013-04-16 19:18:00,83.1,29.0,25.96,SSE,167,5.4,10.5,14,0.00,,,0.00,VWS V14.00,2013-04-17 00:18:00,
2013-04-16 19:20:00,82.9,28.9,25.96,South,172,4.0,10.5,14,0.00,,,0.00,VWS V14.00,2013-04-17 00:20:00,
2013-04-16 19:23:00,82.9,28.9,25.96,SSW,204,4.0,10.5,14,0.00,,,0.00,VWS V14.00,2013-04-17 00:23:00,
2013-04-16 19:24:00,82.9,28.9,25.96,South,185,2.7,10.5,14,0.00,,,0.00,VWS V14.00,2013-04-17 00:24:00,
2013-04-16 19:26:00,82.8,28.8,25.96,SSE,154,3.6,11.0,14,0.00,,,0.00,VWS V14.00,2013-04-17 00:26:00,
2013-04-16 19:27:00,82.8,28.8,25.96,SE,143,4.0,11.0,14,0.00,,,0.00,VWS V14.00,2013-04-17 00:27:00,
2013-04-16 19:28:00,82.6,28.6,25.96,SSE,154,7.2,8.7,14,0.00,,,0.00,VWS V14.00,2013-04-17 00:28:00,
2013-04-16 19:29:00,82.6,28.6,25.96,South,173,3.6,8.7,14,0.00,,,0.00,VWS V14.00,2013-04-17 00:29:00,
2013-04-16 19:30:00,82.4,28.5,25.96,South,176,5.8,8.7,14,0.00,,,0.00,VWS V14.00,2013-04-17 00:30:00,
2013-04-16 19:31:00,82.4,28.5,25.96,SSE,165,5.4,8.7,14,0.00,,,0.00,VWS V14.00,2013-04-17 00:31:00,
2013-04-16 19:32:00,82.4,28.5,25.96,SSE,165,5.4,8.7,14,0.00,,,0.00,VWS V14.00,2013-04-17 00:32:00,
2013-04-16 19:34:00,82.4,28.5,25.96,SSW,196,4.5,8.7,14,0.00,,,0.00,VWS V14.00,2013-04-17 00:34:00,
2013-04-16 19:37:00,82.0,29.9,25.96,South,190,3.1,8.7,15,0.00,,,0.00,VWS V14.00,2013-04-17 00:37:00,
2013-04-16 19:38:00,82.0,29.9,25.96,South,190,2.7,8.7,15,0.00,,,0.00,VWS V14.00,2013-04-17 00:38:00,
2013-04-16 19:39:00,81.7,29.6,25.96,South,183,0.0,8.7,15,0.00,,,0.00,VWS V14.00,2013-04-17 00:39:00,
2013-04-16 19:40:00,81.7,29.6,25.96,South,183,0.0,8.7,15,0.00,,,0.00,VWS V14.00,2013-04-17 00:40:00,
2013-04-16 19:43:00,81.1,29.1,25.96,South,189,3.1,8.7,15,0.00,,,0.00,VWS V14.00,2013-04-17 00:43:00,
2013-04-16 19:45:00,81.0,29.0,25.96,SSE,160,6.3,6.3,15,0.00,,,0.00,VWS V14.00,2013-04-17 00:45:00,
2013-04-16 19:46:00,80.8,28.9,25.96,SSE,167,2.7,6.3,15,0.00,,,0.00,VWS V14.00,2013-04-17 00:46:00,
2013-04-16 19:48:00,80.8,28.9,25.96,SE,141,0.0,6.3,15,0.00,,,0.00,VWS V14.00,2013-04-17 00:48:00,
2013-04-16 19:49:00,80.6,28.7,25.96,South,185,0.0,6.3,15,0.00,,,0.00,VWS V14.00,2013-04-17 00:49:00,
2013-04-16 19:50:00,80.4,28.6,25.96,East,85,2.7,6.3,15,0.00,,,0.00,VWS V14.00,2013-04-17 00:50:00,
2013-04-16 19:51:00,80.4,28.6,25.96,ENE,70,2.7,6.3,15,0.00,,,0.00,VWS V14.00,2013-04-17 00:51:00,
2013-04-16 19:52:00,80.2,28.4,25.96,NE,56,4.0,6.3,15,0.00,,,0.00,VWS V14.00,2013-04-17 00:52:00,
2013-04-16 19:54:00,79.9,28.1,25.96,ENE,61,0.0,6.3,15,0.00,,,0.00,VWS V14.00,2013-04-17 00:54:00,
2013-04-16 19:55:00,79.7,28.0,25.96,ENE,61,0.0,6.3,15,0.00,,,0.00,VWS V14.00,2013-04-17 00:55:00,
2013-04-16 19:56:00,79.7,28.0,25.96,ENE,61,0.0,6.3,15,0.00,,,0.00,VWS V14.00,2013-04-17 00:56:00,
2013-04-16 19:57:00,79.3,27.7,25.96,South,181,2.7,6.3,15,0.00,,,0.00,VWS V14.00,2013-04-17 00:57:00,
2013-04-16 19:59:00,79.2,27.6,25.96,SE,140,0.0,3.1,15,0.00,,,0.00,VWS V14.00,2013-04-17 00:59:00,
2013-04-16 20:00:00,79.0,27.4,25.96,South,177,7.6,7.6,15,0.00,,,0.00,VWS V14.00,2013-04-17 01:00:00,
2013-04-16 20:02:00,79.0,27.4,25.96,South,172,3.1,7.6,15,0.00,,,0.00,VWS V14.00,2013-04-17 01:02:00,
2013-04-16 20:03:00,79.0,27.4,25.96,South,172,2.7,7.6,15,0.00,,,0.00,VWS V14.00,2013-04-17 01:03:00,
2013-04-16 20:04:00,79.3,27.7,25.96,South,176,2.7,7.6,15,0.00,,,0.00,VWS V14.00,2013-04-17 01:04:00,
2013-04-16 20:05:00,79.2,27.6,25.96,SSW,211,5.4,7.6,15,0.00,,,0.00,VWS V14.00,2013-04-17 01:05:00,
2013-04-16 20:07:00,79.2,27.6,25.96,South,171,3.6,8.3,15,0.00,,,0.00,VWS V14.00,2013-04-17 01:07:00,
2013-04-16 20:08:00,79.2,27.6,25.96,South,182,3.1,8.3,15,0.00,,,0.00,VWS V14.00,2013-04-17 01:08:00,
2013-04-16 20:10:00,79.2,27.6,25.96,SSE,156,3.6,8.3,15,0.00,,,0.00,VWS V14.00,2013-04-17 01:10:00,
2013-04-16 20:11:00,79.0,27.4,25.96,South,169,5.4,8.3,15,0.00,,,0.00,VWS V14.00,2013-04-17 01:11:00,
2013-04-16 20:12:00,79.2,27.6,25.96,South,184,6.3,8.3,15,0.00,,,0.00,VWS V14.00,2013-04-17 01:12:00,
2013-04-16 20:13:00,79.2,27.6,25.96,SE,127,5.4,5.8,15,0.00,,,0.00,VWS V14.00,2013-04-17 01:13:00,
2013-04-16 20:15:00,79.0,27.4,25.96,SE,125,4.0,5.8,15,0.00,,,0.00,VWS V14.00,2013-04-17 01:15:00,
2013-04-16 20:17:00,79.2,27.6,25.96,South,170,3.6,5.8,15,0.00,,,0.00,VWS V14.00,2013-04-17 01:17:00,
2013-04-16 20:18:00,79.2,27.6,25.96,ESE,108,3.1,5.8,15,0.00,,,0.00,VWS V14.00,2013-04-17 01:18:00,
2013-04-16 20:19:00,79.0,27.4,25.93,South,174,2.2,5.8,15,0.00,,,0.00,VWS V14.00,2013-04-17 01:19:00,
2013-04-16 20:20:00,78.8,27.3,25.93,South,174,0.0,5.8,15,0.00,,,0.00,VWS V14.00,2013-04-17 01:20:00,
2013-04-16 20:23:00,78.8,27.3,25.93,SSW,204,8.1,8.3,15,0.00,,,0.00,VWS V14.00,2013-04-17 01:23:00,
2013-04-16 20:24:00,78.6,28.7,25.93,SE,131,5.8,8.3,16,0.00,,,0.00,VWS V14.00,2013-04-17 01:24:00,
2013-04-16 20:25:00,78.4,28.6,25.93,South,170,2.7,8.3,16,0.00,,,0.00,VWS V14.00,2013-04-17 01:25:00,
2013-04-16 20:27:00,78.8,27.3,25.93,South,188,8.3,8.7,15,0.00,,,0.00,VWS V14.00,2013-04-17 01:27:00,
2013-04-16 20:28:00,78.8,27.3,25.93,South,188,8.3,8.3,15,0.00,,,0.00,VWS V14.00,2013-04-17 01:28:00,
2013-04-16 20:31:00,78.8,27.3,25.93,SSE,153,5.8,8.3,15,0.00,,,0.00,VWS V14.00,2013-04-17 01:31:00,
2013-04-16 20:32:00,78.6,28.7,25.93,South,170,5.8,8.3,16,0.00,,,0.00,VWS V14.00,2013-04-17 01:32:00,
2013-04-16 20:35:00,78.4,28.6,25.93,South,170,3.1,8.3,16,0.00,,,0.00,VWS V14.00,2013-04-17 01:35:00,
2013-04-16 20:37:00,78.3,28.4,25.93,SSE,165,5.4,8.7,16,0.00,,,0.00,VWS V14.00,2013-04-17 01:37:00,
2013-04-16 20:38:00,78.3,28.4,25.93,SSE,165,2.7,8.7,16,0.00,,,0.00,VWS V14.00,2013-04-17 01:38:00,
2013-04-16 20:40:00,78.3,28.4,25.93,South,183,4.0,10.1,16,0.00,,,0.00,VWS V14.00,2013-04-17 01:40:00,
2013-04-16 20:44:00,78.3,28.4,25.93,SSE,167,8.1,8.1,16,0.00,,,0.00,VWS V14.00,2013-04-17 01:44:00,
2013-04-16 20:46:00,78.3,28.4,25.93,SSE,157,4.9,12.8,16,0.00,,,0.00,VWS V14.00,2013-04-17 01:46:00,
2013-04-16 20:47:00,78.3,28.4,25.93,South,173,5.4,12.8,16,0.00,,,0.00,VWS V14.00,2013-04-17 01:47:00,
2013-04-16 20:49:00,78.3,28.4,25.93,SSE,165,8.1,12.8,16,0.00,,,0.00,VWS V14.00,2013-04-17 01:49:00,
2013-04-16 20:50:00,78.1,28.3,25.93,SW,227,5.4,12.8,16,0.00,,,0.00,VWS V14.00,2013-04-17 01:50:00,
2013-04-16 20:52:00,77.9,28.1,25.93,South,172,5.4,12.8,16,0.00,,,0.00,VWS V14.00,2013-04-17 01:52:00,
2013-04-16 20:55:00,77.9,28.1,25.93,South,186,3.1,12.8,16,0.00,,,0.00,VWS V14.00,2013-04-17 01:55:00,
2013-04-16 20:56:00,77.9,28.1,25.93,South,175,3.6,12.8,16,0.00,,,0.00,VWS V14.00,2013-04-17 01:56:00,
2013-04-16 20:57:00,77.9,28.1,25.93,SSW,197,4.0,12.8,16,0.00,,,0.00,VWS V14.00,2013-04-17 01:57:00,
2013-04-16 20:59:00,77.9,28.1,25.93,South,179,7.6,11.0,16,0.00,,,0.00,VWS V14.00,2013-04-17 01:59:00,
2013-04-16 21:02:00,77.7,28.0,25.93,South,191,5.4,12.3,16,0.00,,,0.00,VWS V14.00,2013-04-17 02:02:00,
2013-04-16 21:03:00,77.7,28.0,25.93,South,179,3.1,12.3,16,0.00,,,0.00,VWS V14.00,2013-04-17 02:03:00,
2013-04-16 21:04:00,77.5,27.9,25.93,SSE,164,6.3,12.3,16,0.00,,,0.00,VWS V14.00,2013-04-17 02:04:00,
2013-04-16 21:05:00,77.5,27.9,25.93,SSE,164,6.3,12.3,16,0.00,,,0.00,VWS V14.00,2013-04-17 02:05:00,
2013-04-16 21:07:00,77.4,27.7,25.93,SSE,148,3.1,12.3,16,0.00,,,0.00,VWS V14.00,2013-04-17 02:07:00,
2013-04-16 21:08:00,77.4,27.7,25.93,South,176,5.8,12.3,16,0.00,,,0.00,VWS V14.00,2013-04-17 02:08:00,
2013-04-16 21:10:00,77.4,27.7,25.93,SSW,192,7.6,12.3,16,0.00,,,0.00,VWS V14.00,2013-04-17 02:10:00,
2013-04-16 21:13:00,77.0,27.4,25.93,SSW,207,3.1,12.3,16,0.00,,,0.00,VWS V14.00,2013-04-17 02:13:00,
2013-04-16 21:14:00,77.0,27.4,25.93,South,170,5.4,8.7,16,0.00,,,0.00,VWS V14.00,2013-04-17 02:14:00,
2013-04-16 21:17:00,77.0,27.4,25.93,South,190,4.0,8.7,16,0.00,,,0.00,VWS V14.00,2013-04-17 02:17:00,
2013-04-16 21:18:00,76.8,27.3,25.93,SE,138,5.4,8.7,16,0.00,,,0.00,VWS V14.00,2013-04-17 02:18:00,
2013-04-16 21:19:00,76.6,27.1,25.93,SSE,154,3.1,8.7,16,0.00,,,0.00,VWS V14.00,2013-04-17 02:19:00,
2013-04-16 21:21:00,76.5,27.0,25.93,SSW,194,3.1,8.7,16,0.00,,,0.00,VWS V14.00,2013-04-17 02:21:00,
2013-04-16 21:23:00,76.3,26.8,25.93,South,186,3.6,8.7,16,0.00,,,0.00,VWS V14.00,2013-04-17 02:23:00,
2013-04-16 21:24:00,76.1,26.7,25.93,South,176,3.1,8.7,16,0.00,,,0.00,VWS V14.00,2013-04-17 02:24:00,
2013-04-16 21:26:00,75.7,26.4,25.93,SSW,196,4.0,8.7,16,0.00,,,0.00,VWS V14.00,2013-04-17 02:26:00,
2013-04-16 21:28:00,75.7,26.4,25.93,SSW,195,3.1,6.3,16,0.00,,,0.00,VWS V14.00,2013-04-17 02:28:00,
2013-04-16 21:30:00,75.6,26.3,25.93,SSE,152,3.6,6.3,16,0.00,,,0.00,VWS V14.00,2013-04-17 02:30:00,
2013-04-16 21:31:00,75.7,26.4,25.93,SSE,157,6.3,7.6,16,0.00,,,0.00,VWS V14.00,2013-04-17 02:31:00,
2013-04-16 21:34:00,75.7,26.4,25.93,SSE,158,4.9,7.6,16,0.00,,,0.00,VWS V14.00,2013-04-17 02:34:00,
2013-04-16 21:35:00,75.7,26.4,25.93,South,170,5.8,7.6,16,0.00,,,0.00,VWS V14.00,2013-04-17 02:35:00,
2013-04-16 21:36:00,75.7,26.4,25.93,South,179,3.1,8.3,16,0.00,,,0.00,VWS V14.00,2013-04-17 02:36:00,
2013-04-16 21:37:00,75.7,26.4,25.93,SSE,167,8.7,8.7,16,0.00,,,0.00,VWS V14.00,2013-04-17 02:37:00,
2013-04-16 21:40:00,75.6,26.3,25.93,South,179,12.8,12.8,16,0.00,,,0.00,VWS V14.00,2013-04-17 02:40:00,
2013-04-16 21:41:00,75.9,26.5,25.93,South,186,6.3,12.8,16,0.00,,,0.00,VWS V14.00,2013-04-17 02:41:00,
2013-04-16 21:42:00,75.7,26.4,25.93,South,174,3.1,12.8,16,0.00,,,0.00,VWS V14.00,2013-04-17 02:42:00,
2013-04-16 21:43:00,75.7,26.4,25.93,SSW,192,3.6,8.1,16,0.00,,,0.00,VWS V14.00,2013-04-17 02:43:00,
2013-04-16 21:44:00,75.6,26.3,25.93,SSE,157,4.5,8.1,16,0.00,,,0.00,VWS V14.00,2013-04-17 02:44:00,
2013-04-16 21:47:00,75.7,26.4,25.93,SE,136,8.1,9.6,16,0.00,,,0.00,VWS V14.00,2013-04-17 02:47:00,
2013-04-16 21:48:00,75.7,26.4,25.93,South,187,3.6,9.6,16,0.00,,,0.00,VWS V14.00,2013-04-17 02:48:00,
2013-04-16 21:51:00,75.6,26.3,25.90,ESE,113,3.6,9.6,16,0.00,,,0.00,VWS V14.00,2013-04-17 02:51:00,
2013-04-16 21:53:00,75.6,26.3,25.90,SSE,166,3.6,9.6,16,0.00,,,0.00,VWS V14.00,2013-04-17 02:53:00,
2013-04-16 21:54:00,75.4,26.1,25.90,South,191,5.4,9.6,16,0.00,,,0.00,VWS V14.00,2013-04-17 02:54:00,
2013-04-16 21:57:00,75.6,26.3,25.90,SSE,166,3.6,13.6,16,0.00,,,0.00,VWS V14.00,2013-04-17 02:57:00,
2013-04-16 21:58:00,75.6,27.7,25.90,SSE,164,4.0,13.6,17,0.00,,,0.00,VWS V14.00,2013-04-17 02:58:00,
2013-04-16 21:59:00,75.6,27.7,25.90,SSW,192,4.0,8.1,17,0.00,,,0.00,VWS V14.00,2013-04-17 02:59:00,
2013-04-16 22:00:00,75.6,27.7,25.90,SSE,151,7.2,8.3,17,0.00,,,0.00,VWS V14.00,2013-04-17 03:00:00,
2013-04-16 22:02:00,75.4,27.6,25.90,SSE,155,5.4,8.3,17,0.00,,,0.00,VWS V14.00,2013-04-17 03:02:00,
2013-04-16 22:03:00,75.7,27.9,25.90,South,191,10.1,10.1,17,0.00,,,0.00,VWS V14.00,2013-04-17 03:03:00,
2013-04-16 22:04:00,75.7,27.9,25.90,SW,216,4.5,11.0,17,0.00,,,0.00,VWS V14.00,2013-04-17 03:04:00,
2013-04-16 22:05:00,75.7,27.9,25.90,South,179,3.6,11.0,17,0.00,,,0.00,VWS V14.00,2013-04-17 03:05:00,
2013-04-16 22:07:00,75.6,27.7,25.90,SSE,157,4.0,11.0,17,0.00,,,0.00,VWS V14.00,2013-04-17 03:07:00,
2013-04-16 22:09:00,75.4,27.6,25.90,South,177,5.8,11.0,17,0.00,,,0.00,VWS V14.00,2013-04-17 03:09:00,
2013-04-16 22:10:00,75.4,27.6,25.90,SSE,156,5.4,11.0,17,0.00,,,0.00,VWS V14.00,2013-04-17 03:10:00,
2013-04-16 22:12:00,75.6,27.7,25.90,SSW,192,5.4,14.5,17,0.00,,,0.00,VWS V14.00,2013-04-17 03:12:00,
2013-04-16 22:15:00,75.4,27.6,25.90,SE,146,0.0,0.0,17,0.00,,,0.00,VWS V14.00,2013-04-17 03:15:00,
2013-04-16 22:17:00,75.4,27.6,25.90,SSE,166,0.0,0.0,17,0.00,,,0.00,VWS V14.00,2013-04-17 03:17:00,
2013-04-16 22:18:00,75.2,28.8,25.90,South,185,0.0,0.0,18,0.00,,,0.00,VWS V14.00,2013-04-17 03:18:00,
2013-04-16 22:21:00,75.2,28.8,25.90,South,181,0.0,0.0,18,0.00,,,0.00,VWS V14.00,2013-04-17 03:21:00,
2013-04-16 22:22:00,75.2,28.8,25.90,SE,125,0.0,0.0,18,0.00,,,0.00,VWS V14.00,2013-04-17 03:22:00,
2013-04-16 22:23:00,75.2,28.8,25.90,SSE,148,0.0,0.0,18,0.00,,,0.00,VWS V14.00,2013-04-17 03:23:00,
2013-04-16 22:24:00,75.0,30.0,25.90,ESE,119,0.0,0.0,19,0.00,,,0.00,VWS V14.00,2013-04-17 03:24:00,
2013-04-16 22:27:00,75.0,30.0,25.90,SSW,193,0.0,0.0,19,0.00,,,0.00,VWS V14.00,2013-04-17 03:27:00,
2013-04-16 22:28:00,75.0,30.0,25.90,SSE,151,0.0,0.0,19,0.00,,,0.00,VWS V14.00,2013-04-17 03:28:00,
2013-04-16 22:29:00,74.8,29.9,25.90,South,172,0.0,0.0,19,0.00,,,0.00,VWS V14.00,2013-04-17 03:29:00,
2013-04-16 22:30:00,74.8,29.9,25.90,SE,145,0.0,0.0,19,0.00,,,0.00,VWS V14.00,2013-04-17 03:30:00,
2013-04-16 22:33:00,74.8,29.9,25.90,SSE,157,0.0,0.0,19,0.00,,,0.00,VWS V14.00,2013-04-17 03:33:00,
2013-04-16 22:34:00,74.7,29.7,25.90,SSE,162,0.0,0.0,19,0.00,,,0.00,VWS V14.00,2013-04-17 03:34:00,
2013-04-16 22:35:00,74.7,29.7,25.90,South,181,0.0,0.0,19,0.00,,,0.00,VWS V14.00,2013-04-17 03:35:00,
2013-04-16 22:36:00,74.7,29.7,25.90,SE,138,0.0,0.0,19,0.00,,,0.00,VWS V14.00,2013-04-17 03:36:00,
2013-04-16 22:38:00,74.7,31.0,25.90,ENE,69,0.0,0.0,20,0.00,,,0.00,VWS V14.00,2013-04-17 03:38:00,
2013-04-16 22:40:00,74.8,31.1,25.90,South,170,0.0,0.0,20,0.00,,,0.00,VWS V14.00,2013-04-17 03:40:00,
2013-04-16 22:41:00,74.8,31.1,25.90,South,188,0.0,0.0,20,0.00,,,0.00,VWS V14.00,2013-04-17 03:41:00,
2013-04-16 22:43:00,74.8,31.1,25.90,South,172,0.0,0.0,20,0.00,,,0.00,VWS V14.00,2013-04-17 03:43:00,
2013-04-16 22:44:00,74.8,31.1,25.90,SSE,164,0.0,0.0,20,0.00,,,0.00,VWS V14.00,2013-04-17 03:44:00,
2013-04-16 22:46:00,74.8,31.1,25.90,SSE,165,0.0,0.0,20,0.00,,,0.00,VWS V14.00,2013-04-17 03:46:00,
2013-04-16 22:48:00,74.7,31.0,25.90,SSW,194,0.0,0.0,20,0.00,,,0.00,VWS V14.00,2013-04-17 03:48:00,
2013-04-16 22:49:00,74.7,32.2,25.90,South,178,0.0,0.0,21,0.00,,,0.00,VWS V14.00,2013-04-17 03:49:00,
2013-04-16 22:50:00,74.5,32.0,25.90,South,190,0.0,0.0,21,0.00,,,0.00,VWS V14.00,2013-04-17 03:50:00,
2013-04-16 22:52:00,74.5,32.0,25.90,SSW,194,0.0,0.0,21,0.00,,,0.00,VWS V14.00,2013-04-17 03:52:00,
2013-04-16 22:54:00,74.3,31.9,25.90,SSW,200,0.0,0.0,21,0.00,,,0.00,VWS V14.00,2013-04-17 03:54:00,
2013-04-16 22:55:00,74.3,33.0,25.90,SSE,168,0.0,0.0,22,0.00,,,0.00,VWS V14.00,2013-04-17 03:55:00,
2013-04-16 22:58:00,74.1,32.9,25.90,SE,126,0.0,0.0,22,0.00,,,0.00,VWS V14.00,2013-04-17 03:58:00,
2013-04-16 23:00:00,74.1,32.9,25.90,South,176,0.0,0.0,22,0.00,,,0.00,VWS V14.00,2013-04-17 04:00:00,
2013-04-16 23:01:00,74.1,32.9,25.90,SE,145,0.0,0.0,22,0.00,,,0.00,VWS V14.00,2013-04-17 04:01:00,
2013-04-16 23:02:00,74.3,33.0,25.90,South,179,0.0,0.0,22,0.00,,,0.00,VWS V14.00,2013-04-17 04:02:00,
2013-04-16 23:03:00,74.5,33.2,25.90,South,175,0.0,0.0,22,0.00,,,0.00,VWS V14.00,2013-04-17 04:03:00,
2013-04-16 23:06:00,74.3,33.0,25.87,South,178,0.0,0.0,22,0.00,,,0.00,VWS V14.00,2013-04-17 04:06:00,
2013-04-16 23:07:00,74.3,34.1,25.87,SSE,166,0.0,0.0,23,0.00,,,0.00,VWS V14.00,2013-04-17 04:07:00,
2013-04-16 23:08:00,74.1,34.0,25.87,South,180,0.0,0.0,23,0.00,,,0.00,VWS V14.00,2013-04-17 04:08:00,
2013-04-16 23:13:00,74.1,34.0,25.87,SSE,153,0.0,0.0,23,0.00,,,0.00,VWS V14.00,2013-04-17 04:13:00,
2013-04-16 23:14:00,74.1,34.0,25.87,SSE,152,0.0,0.0,23,0.00,,,0.00,VWS V14.00,2013-04-17 04:14:00,
2013-04-16 23:18:00,74.5,34.3,25.87,South,169,0.0,0.0,23,0.00,,,0.00,VWS V14.00,2013-04-17 04:18:00,
2013-04-16 23:19:00,74.7,33.3,25.87,South,176,0.0,0.0,22,0.00,,,0.00,VWS V14.00,2013-04-17 04:19:00,
2013-04-16 23:20:00,74.8,33.5,25.87,SSE,164,0.0,0.0,22,0.00,,,0.00,VWS V14.00,2013-04-17 04:20:00,
2013-04-16 23:24:00,75.0,33.6,25.87,SSW,202,0.0,0.0,22,0.00,,,0.00,VWS V14.00,2013-04-17 04:24:00,
2013-04-16 23:25:00,75.0,33.6,25.87,South,185,0.0,0.0,22,0.00,,,0.00,VWS V14.00,2013-04-17 04:25:00,
2013-04-16 23:26:00,75.0,33.6,25.87,SE,145,0.0,0.0,22,0.00,,,0.00,VWS V14.00,2013-04-17 04:26:00,
2013-04-16 23:27:00,75.0,33.6,25.87,SSE,160,0.0,0.0,22,0.00,,,0.00,VWS V14.00,2013-04-17 04:27:00,
2013-04-16 23:29:00,75.0,33.6,25.87,South,180,0.0,0.0,22,0.00,,,0.00,VWS V14.00,2013-04-17 04:29:00,
2013-04-16 23:30:00,75.0,33.6,25.87,South,185,0.0,0.0,22,0.00,,,0.00,VWS V14.00,2013-04-17 04:30:00,
2013-04-16 23:32:00,75.0,33.6,25.87,SSW,202,0.0,0.0,22,0.00,,,0.00,VWS V14.00,2013-04-17 04:32:00,
2013-04-16 23:35:00,75.0,33.6,25.87,South,191,0.0,0.0,22,0.00,,,0.00,VWS V14.00,2013-04-17 04:35:00,
2013-04-16 23:36:00,75.0,33.6,25.87,South,185,0.0,0.0,22,0.00,,,0.00,VWS V14.00,2013-04-17 04:36:00,
2013-04-16 23:37:00,75.0,34.7,25.87,South,177,0.0,0.0,23,0.00,,,0.00,VWS V14.00,2013-04-17 04:37:00,
2013-04-16 23:38:00,75.0,34.7,25.87,South,177,0.0,0.0,23,0.00,,,0.00,VWS V14.00,2013-04-17 04:38:00,
2013-04-16 23:41:00,75.0,34.7,25.87,South,171,0.0,0.0,23,0.00,,,0.00,VWS V14.00,2013-04-17 04:41:00,
2013-04-16 23:42:00,75.0,34.7,25.87,SSW,211,0.0,0.0,23,0.00,,,0.00,VWS V14.00,2013-04-17 04:42:00,
2013-04-16 23:44:00,75.0,34.7,25.87,South,178,0.0,0.0,23,0.00,,,0.00,VWS V14.00,2013-04-17 04:44:00,
2013-04-16 23:46:00,75.0,34.7,25.87,SSE,149,0.0,0.0,23,0.00,,,0.00,VWS V14.00,2013-04-17 04:46:00,
2013-04-16 23:47:00,75.0,34.7,25.87,South,184,0.0,0.0,23,0.00,,,0.00,VWS V14.00,2013-04-17 04:47:00,
2013-04-16 23:48:00,75.0,34.7,25.87,SE,142,0.0,0.0,23,0.00,,,0.00,VWS V14.00,2013-04-17 04:48:00,
2013-04-16 23:49:00,75.0,34.7,25.84,South,191,0.0,0.0,23,0.00,,,0.00,VWS V14.00,2013-04-17 04:49:00,
2013-04-16 23:51:00,75.0,34.7,25.84,South,180,0.0,0.0,23,0.00,,,0.00,VWS V14.00,2013-04-17 04:51:00,
2013-04-16 23:53:00,75.0,34.7,25.84,South,170,0.0,0.0,23,0.00,,,0.00,VWS V14.00,2013-04-17 04:53:00,
2013-04-16 23:54:00,75.0,34.7,25.84,SSW,195,0.0,0.0,23,0.00,,,0.00,VWS V14.00,2013-04-17 04:54:00,
2013-04-16 23:58:00,75.0,35.8,25.84,South,178,0.0,0.0,24,0.00,,,0.00,VWS V14.00,2013-04-17 04:58:00,
2013-04-16 23:59:00,75.0,35.8,25.84,South,183,0.0,0.0,24,0.00,,,0.00,VWS V14.00,2013-04-17 04:59:00,